GEFSMA_con_cape1000_120.txt.gz
Probability
90 94 97 97 90 90 84 90 84 74 81 61 52 35 32 45 45 45 81 97 97 94 94 87 74 61 58 52 42 45 32 35 35 32 26 26 23 16 19 19 19 16 13
87 87 97 97 90 87 81 87 81 84 68 52 45 32 39 45 55 71 77 94 84 87 81 71 77 65 52 45 42 42 35 29 26 26 26 23 19 16 16 13 13 10 10
74 77 81 84 81 84 84 81 81 74 71 58 45 52 55 68 52 71 68 81 77 65 71 71 68 55 48 48 35 32 29 26 26 19 19 19 13 13 10 6 3 3 6
61 68 71 77 71 71 71 74 68 55 61 52 55 58 61 71 58 74 65 58 58 55 55 48 48 45 45 32 29 26 23 23 26 23 19 16 13 13 6 3 3 3 3
39 52 58 61 58 65 65 52 55 65 52 55 45 45 42 42 48 32 39 42 42 52 45 29 32 35 35 29 19 23 19 19 23 19 13 10 10 6 3 3 0 0 0
35 42 42 42 45 52 58 52 52 58 48 42 16 6 23 26 32 35 26 29 32 29 35 23 29 23 19 16 16 13 16 19 13 13 10 10 6 3 0 0 0 0 0
39 39 35 39 39 39 52 42 48 42 39 35 29 16 16 10 16 26 19 23 16 16 19 16 26 19 16 6 6 10 10 13 13 10 10 3 3 0 0 0 0 0 0
35 29 32 29 23 35 29 32 45 42 29 23 19 10 6 3 13 6 13 10 3 6 6 3 10 10 6 10 3 3 6 3 3 3 3 3 0 0 0 0 0 0 0
29 32 29 26 19 23 23 29 35 35 23 23 19 0 3 3 6 3 6 3 3 13 10 10 3 3 0 3 3 0 0 0 0 0 0 0 0 0 0 0 0 0 0
16 19 26 16 16 10 23 29 19 29 16 19 19 13 3 3 3 3 3 3 10 13 13 3 3 0 0 0 0 0 0 0 0 0 0 0 0 0 0 0 0 0 0
10 10 10 6 10 16 13 13 6 6 13 19 13 13 6 6 3 0 0 0 0 0 10 6 10 6 3 3 0 0 0 0 0 0 0 0 0 0 0 0 0 0 0
3 3 0 3 3 6 3 3 3 3 6 10 16 13 10 6 6 3 0 3 3 0 0 0 0 0 0 0 0 0 0 0 0 0 0 0 0 0 0 0 0 0 0
3 0 0 0 3 3 3 0 0 0 0 3 6 10 10 10 10 6 3 0 0 0 0 0 0 0 0 0 0 0 0 0 0 0 0 0 0 0 0 0 0 0 0
0 0 0 0 3 3 0 0 0 0 0 3 0 0 3 3 3 0 0 0 0 0 0 0 0 0 0 0 0 0 0 0 0 0 0 0 0 0 0 0 0 0 0
0 0 0 0 0 3 0 0 0 0 0 0 0 0 0 0 3 0 0 0 0 0 0 0 0 0 0 0 0 0 0 0 0 0 0 0 0 0 0 0 0 0 0
0 0 0 0 0 0 0 0 0 0 0 0 3 0 0 0 0 0 0 0 0 0 0 0 0 0 0 0 0 0 0 0 0 0 0 0 0 0 0 0 0 0 0
0 0 0 0 0 0 0 0 0 0 0 0 0 0 0 0 0 0 0 0 0 0 0 0 0 0 0 0 0 0 0 0 0 0 0 0 0 0 0 0 0 0 0
0 0 0 0 0 0 0 0 0 0 0 0 0 0 0 0 0 0 0 0 0 0 0 0 0 0 0 0 0 0 0 0 0 0 0 0 0 0 0 0 0 0 0
0 0 0 0 0 0 0 0 0 0 0 0 0 0 0 0 0 0 0 0 0 0 0 0 0 0 0 0 0 0 0 0 0 0 0 0 0 0 0 0 0 0 0
0 0 0 0 0 0 0 0 0 0 0 0 0 0 0 0 0 0 0 0 0 0 0 0 0 0 0 0 0 0 0 0 0 0 0 0 0 0 0 0 0 0 0
0 0 0 0 0 0 0 0 0 0 0 0 0 0 0 0 0 0 0 0 0 0 0 0 0 0 0 0 0 0 0 0 0 0 0 0 0 0 0 0 0 0 0
0 0 0 0 0 0 0 0 0 0 0 0 0 0 0 0 0 0 0 0 0 0 0 0 0 0 0 0 0 0 0 0 0 0 0 0 0 0 0 0 0 0 0
0 0 0 0 0 0 0 0 0 0 0 0 0 0 0 0 0 0 0 0 0 0 0 0 0 0 0 0 0 0 0 0 0 0 0 0 0 0 0 0 0 0 0
0 0 0 0 0 0 0 0 0 0 0 0 0 0 0 0 0 0 0 0 0 0 0 0 0 0 0 0 0 0 0 0 0 0 0 0 0 0 0 0 0 0 0
0 0 0 0 0 0 0 0 0 0 0 0 0 0 0 0 0 0 0 0 0 0 0 0 0 0 0 0 0 0 0 0 0 0 0 0 0 0 0 0 0 0 0
0 0 0 0 0 0 0 0 0 0 0 0 0 0 0 0 0 0 0 0 0 0 0 0 0 0 0 0 0 0 0 0 0 0 0 0 0 0 0 0 0 0 0

GEFSMA_con_cape1000_126.txt.gz
Probability
77 77 84 77 74 81 84 77 77 71 68 58 65 55 45 45 45 45 65 77 84 84 94 87 90 71 68 58 61 52 45 42 39 35 32 32 26 26 19 16 13 13 13
71 71 77 81 77 71 71 74 77 74 71 68 65 65 58 45 55 45 52 61 74 81 87 87 87 81 71 65 65 55 45 42 42 42 32 29 26 23 13 13 13 13 13
65 65 68 68 65 68 61 65 68 68 68 61 55 55 58 68 55 61 52 48 45 65 77 81 87 81 74 65 55 48 45 39 39 35 32 26 19 16 10 6 6 10 3
58 55 55 58 68 65 68 61 61 58 48 52 52 45 42 48 52 55 45 39 35 26 52 68 65 65 65 58 45 42 42 32 29 29 26 19 19 3 3 6 6 3 3
58 55 52 55 58 55 68 42 48 52 42 42 42 42 35 39 39 35 39 39 23 19 19 23 42 52 45 42 39 35 29 23 19 23 19 19 16 10 3 3 3 3 3
58 58 52 52 52 42 45 45 39 48 39 35 3 16 32 26 29 23 16 13 16 23 16 10 10 10 29 32 35 32 23 16 16 16 19 16 13 10 3 3 3 3 3
45 52 42 48 45 45 39 39 32 29 19 19 10 13 16 19 16 23 19 13 13 10 13 6 3 3 0 13 23 16 10 6 13 16 13 13 13 6 3 3 3 0 0
39 35 42 35 39 42 39 29 29 23 19 19 16 6 6 6 13 0 13 10 6 6 6 3 3 3 0 0 0 10 10 6 6 10 6 10 6 3 3 3 0 0 0
32 35 35 32 32 35 35 26 26 23 19 16 3 0 3 0 0 3 3 3 3 6 3 0 0 0 0 0 0 0 3 0 0 3 0 3 3 0 0 0 0 0 0
29 29 32 29 29 29 29 26 26 23 19 13 10 3 0 0 0 0 0 0 3 3 0 0 0 0 3 0 0 0 0 0 0 0 0 0 0 0 0 0 0 0 0
23 19 23 23 19 23 26 26 23 23 13 3 6 6 3 0 0 0 0 0 0 3 3 3 3 3 3 0 0 0 0 0 0 0 0 0 0 0 0 0 0 0 0
19 16 13 16 16 19 16 19 16 13 6 3 0 0 0 0 0 0 0 0 0 0 0 3 3 0 0 0 0 0 0 0 0 0 0 0 0 0 0 0 0 0 0
10 6 3 3 6 6 6 6 13 10 6 0 0 0 0 0 0 0 0 0 0 0 0 0 0 0 0 3 0 0 0 0 0 0 0 0 0 0 0 0 0 0 0
3 3 3 3 3 3 0 0 10 3 3 0 0 0 0 0 0 0 0 0 0 0 0 0 0 3 0 0 0 0 0 0 0 0 0 0 0 0 0 0 0 0 0
3 3 3 3 0 0 0 0 3 0 0 0 0 0 0 0 0 0 0 0 0 0 0 0 0 0 0 0 0 0 0 0 0 0 0 0 0 0 0 0 0 0 0
3 3 3 0 0 0 0 0 0 0 0 0 0 0 0 0 0 0 0 0 0 0 0 0 0 0 0 0 0 0 0 0 0 0 0 0 0 0 0 0 0 0 0
3 0 0 0 0 0 0 0 0 0 0 0 0 0 0 0 0 0 0 0 0 0 0 0 0 0 0 0 0 0 0 0 0 0 0 0 0 0 0 0 0 0 0
0 0 0 0 0 0 0 0 0 0 0 0 0 0 0 0 0 0 0 0 0 0 0 0 0 0 0 0 0 0 0 0 0 0 0 0 0 0 0 0 0 0 0
0 0 0 0 0 0 0 0 0 0 0 0 0 0 0 0 0 0 0 0 0 0 0 0 0 0 0 0 0 0 0 0 0 0 0 0 0 0 0 0 0 0 0
0 0 0 0 0 0 0 0 0 0 0 0 0 0 0 0 0 0 0 0 0 0 0 0 0 0 0 0 0 0 0 0 0 0 0 0 0 0 0 0 0 0 0
0 0 0 0 0 0 0 0 0 0 0 0 0 0 0 0 0 0 0 0 0 0 0 0 0 0 0 0 0 0 0 0 0 0 0 0 0 0 0 0 0 0 0
0 0 0 0 0 0 0 0 0 0 0 0 0 0 0 0 0 0 0 0 0 0 0 0 0 0 0 0 0 0 0 0 0 0 0 0 0 0 0 0 0 0 0
0 0 0 0 0 0 0 0 0 0 0 0 0 0 0 0 0 0 0 0 0 0 0 0 0 0 0 0 0 0 0 0 0 0 0 0 0 0 0 0 0 0 0
0 0 0 0 0 0 0 0 0 0 0 0 0 0 0 0 0 0 0 0 0 0 0 0 0 0 0 0 0 0 0 0 0 0 0 0 0 0 0 0 0 0 0
0 0 0 0 0 0 0 0 0 0 0 0 0 0 0 0 0 0 0 0 0 0 0 0 0 0 0 0 0 0 0 0 0 0 0 0 0 0 0 0 0 0 0
0 0 0 0 0 0 0 0 0 0 0 0 0 0 0 0 0 0 0 0 0 0 0 0 0 0 0 0 0 0 0 0 0 0 0 0 0 0 0 0 0 0 0

GEFSMA_con_cape1000_132.txt.gz
Probability
26 29 35 39 39 35 29 29 26 26 16 19 13 3 3 3 3 3 6 55 61 84 81 74 77 77 74 65 71 68 58 61 48 42 45 39 35 35 29 26 26 19 13
23 23 19 26 29 26 29 26 23 19 16 16 16 10 6 3 0 3 3 29 58 58 71 71 71 65 74 65 65 65 68 65 45 45 35 26 26 26 26 19 19 13 10
19 23 19 16 19 19 19 13 13 13 6 10 6 3 3 3 0 3 6 10 23 45 55 65 71 71 68 65 61 68 58 55 52 42 32 26 23 10 10 10 10 10 3
16 16 16 16 19 16 10 10 13 10 10 6 3 3 3 3 3 0 6 6 3 6 35 52 58 55 58 58 48 52 42 42 39 32 35 26 16 10 10 10 10 6 3
16 16 16 16 16 10 10 10 6 3 3 0 0 3 3 3 0 3 0 3 3 0 0 29 42 42 48 48 45 39 32 32 42 32 26 19 13 13 6 6 3 3 3
16 10 10 13 10 10 6 6 6 3 3 0 0 0 0 0 0 0 0 0 0 0 0 0 16 19 39 32 29 29 26 26 32 29 23 19 16 10 3 3 3 3 3
16 16 10 10 6 3 6 6 3 3 3 0 0 0 0 0 0 0 0 0 0 0 0 0 0 0 3 13 13 16 16 16 13 13 19 10 10 3 3 3 3 3 3
13 16 10 6 6 3 3 3 0 3 3 3 0 0 0 0 0 0 0 0 0 0 0 0 0 0 0 0 6 10 10 10 10 6 3 6 3 3 3 3 0 0 0
13 10 6 6 6 3 3 3 3 0 3 0 0 0 0 0 0 0 0 0 0 0 0 0 0 0 0 0 0 0 3 3 3 6 3 3 3 0 0 0 0 0 0
10 10 6 6 6 6 3 3 3 0 0 0 0 0 0 0 0 0 0 0 0 0 0 0 0 0 0 0 0 0 0 0 0 0 6 3 3 0 0 0 0 0 0
6 6 6 6 6 6 3 0 0 0 0 0 0 0 0 0 0 0 0 0 0 0 0 0 0 0 0 0 0 0 0 0 0 0 0 0 0 0 0 0 0 0 0
6 6 3 3 3 3 3 0 0 0 0 0 0 0 0 0 0 0 0 0 0 0 0 0 0 0 0 0 0 0 0 0 0 0 0 0 0 0 0 0 0 0 0
3 3 3 3 3 3 3 0 0 0 0 0 0 0 0 0 0 0 0 0 0 0 0 0 0 0 0 0 0 0 0 0 0 0 0 0 0 0 0 0 0 0 0
3 3 3 3 3 0 0 0 0 0 0 0 0 0 0 0 0 0 0 0 0 0 0 0 0 0 0 0 0 0 0 0 0 0 0 0 0 0 0 0 0 0 0
0 3 3 3 0 0 0 0 0 0 0 0 0 0 0 0 0 0 0 0 0 0 0 0 0 0 0 0 0 0 0 0 0 0 0 0 0 0 0 0 0 0 0
0 3 3 0 0 0 0 0 0 0 0 0 0 0 0 0 0 0 0 0 0 0 0 0 0 0 0 0 0 0 0 0 0 0 0 0 0 0 0 0 0 0 0
0 3 0 0 0 0 0 0 0 0 0 0 0 0 0 0 0 0 0 0 0 0 0 0 0 0 0 0 0 0 0 0 0 0 0 0 0 0 0 0 0 0 0
0 0 0 0 0 0 0 0 0 0 0 0 0 0 0 0 0 0 0 0 0 0 0 0 0 0 0 0 0 0 0 0 0 0 0 0 0 0 0 0 0 0 0
0 0 0 0 0 0 0 0 0 0 0 0 0 0 0 0 0 0 0 0 0 0 0 0 0 0 0 0 0 0 0 0 0 0 0 0 0 0 0 0 0 0 0
0 0 0 0 0 0 0 0 0 0 0 0 0 0 0 0 0 0 0 0 0 0 0 0 0 0 0 0 0 0 0 0 0 0 0 0 0 0 0 0 0 0 0
0 0 0 0 0 0 0 0 0 0 0 0 0 0 0 0 0 0 0 0 0 0 0 0 0 0 0 0 0 0 0 0 0 0 0 0 0 0 0 0 0 0 0
0 0 0 0 0 0 0 0 0 0 0 0 0 0 0 0 0 0 0 0 0 0 0 0 0 0 0 0 0 0 0 0 0 0 0 0 0 0 0 0 0 0 0
0 0 0 0 0 0 0 0 0 0 0 0 0 0 0 0 0 0 0 0 0 0 0 0 0 0 0 0 0 0 0 0 0 0 0 0 0 0 0 0 0 0 0
0 0 0 0 0 0 0 0 0 0 0 0 0 0 0 0 0 0 0 0 0 0 0 0 0 0 0 0 0 0 0 0 0 0 0 0 0 0 0 0 0 0 0
0 0 0 0 0 0 0 0 0 0 0 0 0 0 0 0 0 0 0 0 0 0 0 0 0 0 0 0 0 0 0 0 0 0 0 0 0 0 0 0 0 0 0
0 0 0 0 0 0 0 0 0 0 0 0 0 0 0 0 0 0 0 0 0 0 0 0 0 0 0 0 0 0 0 0 0 0 0 0 0 0 0 0 0 0 0

GEFSMA_con_cape1000_138.txt.gz
Probability
26 26 35 26 26 32 32 26 29 29 32 26 26 26 19 19 16 13 10 35 58 71 77 84 77 81 84 84 74 71 68 61 52 45 52 48 42 39 35 35 23 19 16
23 16 13 13 19 23 26 26 26 26 23 23 23 29 19 13 6 3 6 13 45 58 68 74 74 81 77 84 77 68 68 65 55 48 42 39 39 35 32 26 23 23 16
13 13 13 10 13 10 13 13 16 10 13 16 16 16 16 13 10 6 6 6 13 35 48 68 65 65 65 71 68 65 65 61 55 48 42 39 26 19 16 16 16 13 10
3 10 13 13 6 6 6 13 13 10 10 13 13 6 6 6 10 10 10 6 6 6 29 45 58 58 58 58 52 58 58 55 45 45 39 35 23 16 13 13 10 6 0
3 3 6 6 6 0 3 6 10 10 6 6 3 6 3 3 6 6 3 3 3 3 3 16 32 35 42 45 42 45 48 39 32 32 32 26 16 10 6 3 3 3 3
10 6 6 6 6 3 0 0 3 3 3 3 3 3 0 0 3 3 3 3 3 3 0 0 10 23 26 29 29 29 32 32 26 19 26 19 10 3 3 3 3 3 3
3 6 6 6 3 3 3 3 0 0 0 3 3 3 0 0 0 0 3 3 3 3 3 3 3 6 6 19 19 23 19 19 13 10 16 13 10 3 3 3 0 0 0
3 6 6 3 3 0 0 0 0 0 0 0 3 3 3 0 0 0 0 0 3 3 3 0 0 0 0 0 0 6 10 10 10 13 10 10 10 3 3 3 3 3 3
6 6 10 6 6 3 3 0 0 3 0 0 0 3 3 3 0 0 0 0 0 0 0 0 0 0 0 0 0 0 6 10 10 6 10 6 0 0 0 3 3 3 3
6 6 6 6 6 6 0 0 3 3 3 0 0 0 3 3 0 0 0 0 0 0 0 0 0 0 0 0 0 0 0 3 6 6 10 6 0 0 3 0 0 0 3
6 6 6 6 3 3 0 0 0 0 0 0 0 0 0 0 0 0 0 0 0 0 0 0 0 0 0 0 0 0 0 0 0 3 6 3 3 0 0 3 3 3 0
0 0 3 3 3 3 0 0 0 0 0 0 0 0 0 0 0 0 0 0 0 0 0 0 0 0 0 0 0 0 0 0 0 0 0 0 0 0 0 0 3 3 3
0 0 0 3 3 3 3 0 0 0 0 0 0 0 0 0 0 0 0 0 0 0 0 0 0 0 0 0 0 0 0 0 0 0 0 0 0 0 0 0 0 0 0
0 0 0 0 3 3 3 3 0 0 0 0 0 0 0 0 0 0 0 0 0 0 0 0 0 0 0 0 0 0 0 0 0 0 0 0 0 0 0 0 0 0 0
0 0 0 0 0 3 3 3 3 0 0 0 0 0 0 0 0 0 0 0 0 0 0 0 0 0 0 0 0 0 0 0 0 0 0 0 0 0 0 0 0 0 0
0 0 0 0 0 0 3 3 3 3 0 0 0 0 0 0 0 0 0 0 0 0 0 0 0 0 0 0 0 0 0 0 0 0 0 0 0 0 0 0 0 0 0
0 0 0 0 0 0 3 3 3 3 0 0 0 0 0 0 0 0 0 0 0 0 0 0 0 0 0 0 0 0 0 0 0 0 0 0 0 0 0 0 0 0 0
0 0 0 0 0 0 0 3 3 0 0 0 0 0 0 0 0 0 0 0 0 0 0 0 0 0 0 0 0 0 0 0 0 0 0 0 0 0 0 0 0 0 0
0 0 0 0 0 0 0 3 0 0 0 0 0 0 0 0 0 0 0 0 0 0 0 0 0 0 0 0 0 0 0 0 0 0 0 0 0 0 0 0 0 0 0
0 0 0 0 0 0 0 0 0 0 0 0 0 0 0 0 0 0 0 0 0 0 0 0 0 0 0 0 0 0 0 0 0 0 0 0 0 0 0 0 0 0 0
0 0 0 0 0 0 0 0 0 0 0 0 0 0 0 0 0 0 0 0 0 0 0 0 0 0 0 0 0 0 0 0 0 0 0 0 0 0 0 0 0 0 0
0 0 0 0 0 0 0 0 0 0 0 0 0 0 0 0 0 0 0 0 0 0 0 0 0 0 0 0 0 0 0 0 0 0 0 0 0 0 0 0 0 0 0
0 0 0 0 0 0 0 0 0 0 0 0 0 0 0 0 0 0 0 0 0 0 0 0 0 0 0 0 0 0 0 0 0 0 0 0 0 0 0 0 0 0 0
0 0 0 0 0 0 0 0 0 0 0 0 0 0 0 0 0 0 0 0 0 0 0 0 0 0 0 0 0 0 0 0 0 0 0 0 0 0 0 0 0 0 0
0 0 0 0 0 0 0 0 0 0 0 0 0 0 0 0 0 0 0 0 0 0 0 0 0 0 0 0 0 0 0 0 0 0 0 0 0 0 0 0 0 0 0
0 0 0 0 0 0 0 0 0 0 0 0 0 0 0 0 0 0 0 0 0 0 0 0 0 0 0 0 0 0 0 0 0 0 0 0 0 0 0 0 0 0 0

GEFSMA_con_cape1000_144.txt.gz
Probability
65 71 74 74 68 65 74 71 52 71 71 58 42 39 29 35 45 45 55 68 61 65 71 74 68 58 65 58 68 74 65 61 65 68 68 55 48 48 45 39 39 26 26
61 58 55 58 42 52 48 61 52 77 65 71 65 52 42 45 45 61 52 61 52 52 52 65 65 58 71 58 55 58 55 52 52 61 61 52 45 35 35 35 29 26 23
48 48 45 42 42 52 55 55 52 65 61 61 55 48 52 42 45 52 52 61 45 42 45 45 52 58 55 55 48 48 52 48 45 45 45 39 35 26 19 19 23 23 16
39 48 48 39 42 39 45 45 45 48 48 45 45 48 32 52 32 39 42 42 48 39 35 32 32 45 42 39 45 42 45 42 42 39 35 35 29 19 13 13 13 10 3
26 35 39 42 35 39 39 32 35 35 29 32 29 32 26 35 39 32 35 32 45 48 35 39 29 35 35 29 35 29 35 35 32 32 32 29 23 13 3 3 0 0 0
29 29 29 29 23 23 26 29 32 35 35 32 13 13 23 26 29 29 29 26 35 32 23 16 35 32 26 23 26 23 23 29 26 26 23 29 23 10 3 0 0 0 0
26 29 26 26 23 23 26 26 29 29 29 29 23 26 19 13 23 29 29 32 23 26 23 26 23 23 19 23 16 19 19 19 16 19 19 19 16 6 0 0 0 0 0
26 10 26 19 23 23 26 23 23 26 26 26 26 19 19 16 23 10 16 23 19 19 26 19 23 23 19 23 13 16 19 16 10 10 16 19 13 6 0 0 0 0 0
13 19 16 13 13 16 13 13 19 19 19 23 23 29 23 10 10 19 10 10 13 19 16 19 16 26 26 16 19 6 13 10 10 10 10 13 10 6 0 0 3 0 0
10 10 10 10 13 13 10 6 10 10 13 16 13 26 26 16 13 10 10 10 10 16 13 10 6 23 19 16 13 6 6 3 3 6 6 6 6 3 0 0 0 0 0
10 6 6 6 13 13 13 6 10 6 10 6 16 19 19 23 19 16 16 6 3 6 6 13 13 19 13 16 13 6 3 0 0 3 6 6 6 3 0 0 0 0 0
3 3 6 6 6 6 6 10 10 6 6 6 13 13 16 13 19 13 13 10 6 10 3 6 10 10 10 13 10 3 0 0 0 0 0 3 3 0 0 0 0 0 0
3 3 3 0 6 6 6 3 3 3 3 3 3 6 10 6 10 10 10 6 6 3 3 3 0 3 3 3 10 0 0 0 0 0 0 0 0 0 0 0 0 0 0
0 0 0 0 0 0 0 3 3 3 3 3 3 3 3 3 10 10 10 10 6 3 3 0 0 3 3 3 3 0 0 0 0 0 0 0 0 0 0 0 0 0 0
0 0 0 0 0 0 0 0 3 3 3 3 3 3 3 3 3 3 13 10 6 3 3 0 0 0 0 3 0 0 3 0 0 0 0 0 0 0 0 0 0 0 0
0 0 0 0 0 0 0 0 0 3 3 3 3 3 3 3 3 6 3 6 6 3 3 0 0 0 0 0 0 0 3 0 0 0 0 0 0 0 0 0 0 0 0
0 0 0 0 0 0 0 0 0 0 3 3 3 3 3 3 3 0 0 0 0 0 0 0 0 0 0 0 0 0 3 3 3 0 0 0 0 0 0 0 0 0 0
0 0 0 0 0 0 0 0 0 0 0 3 3 3 3 3 0 0 0 0 0 0 0 0 0 0 0 0 0 0 0 0 3 0 0 0 0 0 0 0 0 0 0
0 0 0 0 0 0 0 0 0 0 0 0 3 3 3 3 0 0 0 0 0 0 0 0 0 0 0 0 0 0 0 0 0 0 0 0 0 0 0 0 0 0 0
0 0 0 0 0 0 0 0 0 0 0 0 3 3 0 0 0 0 0 0 0 0 0 0 0 0 0 0 0 0 0 0 0 0 0 0 0 0 0 0 0 0 0
0 0 0 0 0 0 0 0 0 0 0 0 0 0 0 0 0 0 0 0 0 0 0 0 0 0 0 0 0 0 0 0 0 0 0 0 0 0 0 0 0 0 0
0 0 0 0 0 0 0 0 0 0 0 0 0 0 0 0 0 0 0 0 0 0 0 0 0 0 0 0 0 0 0 0 0 0 0 0 0 0 0 0 0 0 0
0 0 0 0 0 0 0 0 0 0 0 0 0 0 0 0 0 0 0 0 0 0 0 0 0 0 0 0 0 0 0 0 0 0 0 0 0 0 0 0 0 0 0
0 0 0 0 0 0 0 0 0 0 0 0 0 0 0 0 0 0 0 0 0 0 0 0 0 0 0 0 0 0 0 0 0 0 0 0 0 0 0 0 0 0 0
0 0 0 0 0 0 0 0 0 0 0 0 0 0 0 0 0 0 0 0 0 0 0 0 0 0 0 0 0 0 0 0 0 0 0 0 0 0 0 0 0 0 0
0 0 0 0 0 0 0 0 0 0 0 0 0 0 0 0 0 0 0 0 0 0 0 0 0 0 0 0 0 0 0 0 0 0 0 0 0 0 0 0 0 0 0

GEFSMA_con_cape1000_150.txt.gz
Probability
58 65 65 71 71 65 61 71 65 74 71 74 58 58 71 61 58 55 71 77 77 71 74 65 71 71 74 65 68 61 61 65 61 61 68 65 61 58 52 48 45 39 29
65 65 68 68 65 58 55 61 61 61 58 68 58 61 68 71 71 74 68 74 71 68 65 65 65 65 61 58 65 55 58 61 52 55 61 45 48 45 42 39 39 32 16
48 55 52 52 58 58 58 58 52 61 58 45 61 58 65 68 65 74 68 61 65 61 68 65 65 58 58 52 48 52 52 45 48 39 42 39 42 32 29 26 29 16 6
35 42 52 52 48 48 48 45 45 48 45 48 45 42 45 68 65 65 58 61 55 52 65 61 55 52 42 42 48 39 35 39 42 39 32 32 29 26 16 13 6 3 3
29 35 42 45 42 42 42 29 39 39 35 35 29 32 32 42 52 42 48 55 55 58 48 42 52 45 35 42 39 39 39 35 29 29 19 26 23 23 10 6 3 3 3
26 29 26 35 32 35 42 35 35 35 32 35 23 23 29 29 35 35 35 35 42 42 39 35 35 29 32 29 35 29 26 29 35 23 23 19 19 13 6 3 3 3 3
29 29 26 32 35 32 35 29 32 32 26 29 26 23 19 23 23 19 19 29 26 35 39 26 23 23 16 19 23 26 26 23 26 23 23 19 16 10 3 3 0 3 0
29 23 29 32 32 32 26 26 23 23 19 19 19 16 10 16 23 10 13 23 16 19 23 16 19 19 13 16 13 19 26 23 23 26 23 19 16 10 3 3 0 0 0
23 23 23 29 32 32 26 26 23 16 13 16 16 10 10 10 13 16 16 10 13 13 16 16 16 13 16 16 16 16 19 13 19 19 19 19 10 6 3 0 0 0 0
19 19 23 23 23 26 23 19 19 10 16 13 13 10 10 10 6 3 6 13 10 6 13 6 6 6 10 16 13 10 13 6 13 16 16 13 6 6 3 0 0 0 0
13 16 16 19 19 19 19 16 13 10 10 10 10 10 10 6 6 3 0 6 6 6 10 10 6 6 10 6 13 10 6 3 0 6 10 6 6 3 3 3 0 0 0
6 3 6 10 10 10 6 13 10 6 6 3 6 3 3 6 6 3 3 3 0 0 6 6 3 6 3 6 10 6 3 0 0 0 0 3 3 3 3 3 0 0 0
3 6 6 6 3 3 3 6 6 6 3 3 3 3 6 3 6 6 3 3 0 0 0 0 0 3 3 3 3 0 0 0 0 0 0 0 3 3 3 3 3 0 0
3 0 0 0 0 0 0 3 3 3 3 3 3 3 3 6 6 6 6 3 3 0 0 0 0 0 0 3 3 0 3 0 0 0 0 0 0 0 3 3 0 0 0
0 0 0 0 0 0 0 0 0 3 3 3 3 3 3 6 6 6 6 3 3 0 0 0 0 0 3 0 0 0 0 0 0 0 0 0 0 0 0 0 0 0 0
0 0 0 0 0 0 0 0 0 0 3 3 3 3 3 6 6 6 6 6 3 0 0 0 0 0 0 0 0 0 0 0 0 0 0 0 0 0 0 0 0 0 0
0 0 0 0 0 0 0 0 0 0 0 0 3 3 3 3 3 6 6 3 3 0 0 0 0 0 0 0 0 0 0 0 0 0 0 0 0 0 0 0 0 0 0
0 0 0 0 0 0 0 0 0 0 0 0 0 0 3 3 3 3 3 3 3 0 0 0 0 0 0 0 0 0 0 0 0 0 0 0 0 0 0 0 0 0 0
0 0 0 0 0 0 0 0 0 0 0 0 0 0 0 3 3 3 0 0 0 0 0 0 0 0 0 0 0 0 0 0 0 0 0 0 0 0 0 0 0 0 0
0 0 0 0 0 0 0 0 0 0 0 0 0 0 0 0 3 0 0 0 0 0 0 0 0 0 0 0 0 0 0 0 0 0 0 0 0 0 0 0 0 0 0
0 0 0 0 0 0 0 0 0 0 0 0 0 0 0 0 0 0 0 0 0 0 0 0 0 0 0 0 0 0 0 0 0 0 0 0 0 0 0 0 0 0 0
0 0 0 0 0 0 0 0 0 0 0 0 0 0 0 0 0 0 0 0 0 0 0 0 0 0 0 0 0 0 0 0 0 0 0 0 0 0 0 0 0 0 0
0 0 0 0 0 0 0 0 0 0 0 0 0 0 0 0 0 0 0 0 0 0 0 0 0 0 0 0 0 0 0 0 0 0 0 0 0 0 0 0 0 0 0
0 0 0 0 0 0 0 0 0 0 0 0 0 0 0 0 0 0 0 0 0 0 0 0 0 0 0 0 0 0 0 0 0 0 0 0 0 0 0 0 0 0 0
0 0 0 0 0 0 0 0 0 0 0 0 0 0 0 0 0 0 0 0 0 0 0 0 0 0 0 0 0 0 0 0 0 0 0 0 0 0 0 0 0 0 0
0 0 0 0 0 0 0 0 0 0 0 0 0 0 0 0 0 0 0 0 0 0 0 0 0 0 0 0 0 0 0 0 0 0 0 0 0 0 0 0 0 0 0

GEFSMA_con_cape1000_156.txt.gz
Probability
19 13 23 19 13 10 6 3 6 10 6 6 6 13 13 16 13 13 10 65 74 71 71 68 61 68 71 65 65 74 65 68 68 68 55 61 55 55 39 45 45 35 29
16 16 16 13 3 6 0 3 3 3 3 3 6 3 13 6 10 10 6 26 61 71 68 71 71 68 61 58 61 61 61 58 65 61 61 58 48 39 32 32 32 19 16
13 13 13 13 13 6 3 3 0 0 0 0 0 0 0 0 0 0 3 3 16 45 68 71 68 61 58 55 52 55 52 48 48 55 48 32 35 29 19 23 16 13 3
16 13 16 13 10 10 3 3 0 0 0 0 0 0 0 0 0 3 3 3 3 6 19 58 61 58 52 45 45 42 39 45 42 45 39 26 26 23 16 13 10 3 6
16 13 13 16 10 6 6 3 0 0 0 0 0 0 0 0 0 3 0 0 0 0 0 10 39 42 48 45 42 42 35 35 35 35 26 23 23 23 16 10 6 3 0
13 13 16 16 13 10 6 6 6 0 0 0 0 0 0 0 0 0 0 0 0 0 0 0 3 23 23 29 32 35 29 29 29 32 26 26 23 16 13 10 6 0 0
10 10 13 13 10 6 6 6 6 3 0 0 0 0 0 0 0 0 0 0 0 0 0 0 0 0 0 16 23 26 23 23 23 26 26 19 19 13 10 10 3 0 0
10 10 6 3 3 6 6 6 6 0 0 0 0 0 0 0 0 0 0 0 0 0 0 0 0 0 0 0 3 16 19 19 19 16 13 16 13 10 10 6 3 0 0
10 6 6 6 6 3 0 3 3 0 0 0 0 0 0 0 0 0 0 0 0 0 0 0 0 0 0 0 0 3 10 6 16 13 10 10 6 3 3 3 3 3 0
6 3 3 3 3 0 0 0 0 0 0 0 0 0 0 0 0 0 0 0 0 0 0 0 0 0 0 0 0 0 3 3 6 13 13 10 10 6 3 3 3 3 0
6 3 3 3 0 0 0 0 0 0 3 0 0 0 0 0 0 0 0 0 0 0 0 0 0 0 0 0 0 0 3 0 3 3 6 6 6 6 3 3 3 0 3
3 3 0 0 0 0 0 0 0 0 0 3 0 0 0 0 0 0 0 0 0 0 0 0 0 0 0 0 0 0 0 0 0 0 0 0 6 3 6 3 3 0 0
0 0 0 0 0 0 0 0 0 0 0 3 3 0 0 0 0 0 0 0 0 0 0 0 0 0 0 0 3 0 0 0 0 0 0 0 0 3 3 0 0 0 0
0 0 0 0 0 0 0 0 0 0 0 0 3 0 0 0 0 0 0 0 0 0 0 0 0 0 0 0 0 0 0 0 0 0 0 0 0 0 0 0 0 0 0
0 0 0 0 0 0 0 0 0 0 0 0 0 0 0 0 0 0 0 0 0 0 0 0 0 0 0 0 0 0 0 0 0 0 0 0 0 0 0 0 0 0 0
0 0 0 0 0 0 0 0 0 0 0 0 0 0 0 0 0 0 0 0 0 0 0 0 0 0 0 0 0 0 0 0 0 0 0 0 0 0 0 0 0 0 0
0 0 0 0 0 0 0 0 0 0 0 0 0 0 0 0 0 0 0 0 0 0 0 0 0 0 0 0 0 0 0 0 0 0 0 0 0 0 0 0 0 0 0
0 0 0 0 0 0 0 0 0 0 0 0 0 0 0 0 0 0 0 0 0 0 0 0 0 0 0 0 0 0 0 0 0 0 0 0 0 0 0 0 0 0 0
0 0 0 0 0 0 0 0 0 0 0 0 0 0 0 0 0 0 0 0 0 0 0 0 0 0 0 0 0 0 0 0 0 0 0 0 0 0 0 0 0 0 0
0 0 0 0 0 0 0 0 0 0 0 0 0 0 0 0 0 0 0 0 0 0 0 0 0 0 0 0 0 0 0 0 0 0 0 0 0 0 0 0 0 0 0
0 0 0 0 0 0 0 0 0 0 0 0 0 0 0 0 0 0 0 0 0 0 0 0 0 0 0 0 0 0 0 0 0 0 0 0 0 0 0 0 0 0 0
0 0 0 0 0 0 0 0 0 0 0 0 0 0 0 0 0 0 0 0 0 0 0 0 0 0 0 0 0 0 0 0 0 0 0 0 0 0 0 0 0 0 0
0 0 0 0 0 0 0 0 0 0 0 0 0 0 0 0 0 0 0 0 0 0 0 0 0 0 0 0 0 0 0 0 0 0 0 0 0 0 0 0 0 0 0
0 0 0 0 0 0 0 0 0 0 0 0 0 0 0 0 0 0 0 0 0 0 0 0 0 0 0 0 0 0 0 0 0 0 0 0 0 0 0 0 0 0 0
0 0 0 0 0 0 0 0 0 0 0 0 0 0 0 0 0 0 0 0 0 0 0 0 0 0 0 0 0 0 0 0 0 0 0 0 0 0 0 0 0 0 0
0 0 0 0 0 0 0 0 0 0 0 0 0 0 0 0 0 0 0 0 0 0 0 0 0 0 0 0 0 0 0 0 0 0 0 0 0 0 0 0 0 0 0

GEFSMA_con_cape1000_162.txt.gz
Probability
13 23 23 16 19 19 13 10 10 10 10 10 10 10 10 23 13 10 13 23 48 61 55 52 68 55 55 61 58 61 61 58 55 61 58 58 58 55 65 58 48 35 42
13 10 16 16 16 13 10 6 6 10 6 6 6 6 6 10 6 6 3 0 29 42 58 58 48 45 48 45 55 52 52 58 55 52 52 52 52 52 48 45 35 23 26
13 13 13 13 13 13 10 6 6 0 3 3 3 6 6 6 6 6 3 6 6 10 23 39 45 45 48 45 52 45 42 42 35 42 45 42 42 23 23 16 19 13 13
10 13 13 13 13 6 6 6 6 0 3 0 0 3 10 10 10 6 6 6 0 0 0 10 19 39 39 39 42 42 39 39 35 35 26 35 32 23 23 13 13 13 10
13 10 10 13 13 3 6 3 3 0 0 0 0 0 0 0 0 0 0 3 0 0 0 0 6 13 19 16 23 32 29 32 32 32 26 19 26 19 19 16 10 10 10
10 6 10 10 6 3 3 0 3 0 0 0 0 0 0 0 0 0 0 0 0 0 0 0 0 0 3 10 16 19 19 23 26 23 26 23 23 13 10 10 10 10 10
6 6 10 6 0 0 3 3 0 0 0 0 0 0 0 0 0 0 0 0 0 0 0 0 0 0 0 6 10 19 16 16 13 13 19 16 19 16 6 6 6 3 0
6 6 6 6 3 0 0 6 6 0 0 0 0 0 0 0 0 0 0 0 0 0 3 0 0 0 0 0 0 0 13 13 13 13 13 13 13 10 6 3 3 3 0
3 6 3 3 3 0 0 0 3 0 0 0 0 0 0 0 0 0 0 0 0 0 0 0 0 0 0 0 0 0 0 6 10 10 10 10 10 10 3 3 3 3 3
6 3 3 3 3 3 0 0 0 3 0 0 0 0 0 0 0 0 0 0 0 0 0 0 0 0 0 0 0 0 0 0 3 10 10 10 6 10 3 3 3 3 3
3 3 3 3 3 3 0 0 0 0 0 0 0 0 0 0 0 0 0 0 0 0 0 0 0 0 0 0 0 0 0 0 0 0 6 6 6 3 6 3 3 3 3
0 3 3 3 0 0 0 0 0 0 0 0 0 0 0 0 0 0 0 0 0 0 0 0 0 0 0 0 0 0 0 0 0 0 0 0 3 3 3 6 3 3 3
0 0 0 0 0 0 0 0 0 0 0 0 0 0 0 0 0 0 0 0 0 0 0 0 0 0 0 0 0 0 0 0 0 0 0 0 0 0 0 3 6 6 3
0 0 0 0 0 0 0 0 0 0 0 0 0 0 0 0 0 0 0 0 0 0 0 0 0 0 0 0 0 0 0 0 0 0 0 0 0 0 0 0 3 0 0
0 0 0 0 0 0 0 0 0 0 0 0 0 0 0 0 0 0 0 0 0 0 0 0 0 0 0 0 0 0 0 0 0 0 0 0 0 0 0 0 0 0 0
0 0 0 0 0 0 0 0 0 0 0 0 0 0 0 0 0 0 0 0 0 0 0 0 0 0 0 0 0 0 0 0 0 0 0 0 0 0 0 0 0 0 0
0 0 0 0 0 0 0 0 0 0 0 0 0 0 0 0 0 0 0 0 0 0 0 0 0 0 0 0 0 0 0 0 0 0 0 0 0 0 0 0 0 0 0
0 0 0 0 0 0 0 0 0 0 0 0 0 0 0 0 0 0 0 0 0 0 0 0 0 0 0 0 0 0 0 0 0 0 0 0 0 0 0 0 0 0 0
0 0 0 0 0 0 0 0 0 0 0 0 0 0 0 0 0 0 0 0 0 0 0 0 0 0 0 0 0 0 0 0 0 0 0 0 0 0 0 0 0 0 0
0 0 0 0 0 0 0 0 0 0 0 0 0 0 0 0 0 0 0 0 0 0 0 0 0 0 0 0 0 0 0 0 0 0 0 0 0 0 0 0 0 0 0
0 0 0 0 0 0 0 0 0 0 0 0 0 0 0 0 0 0 0 0 0 0 0 0 0 0 0 0 0 0 0 0 0 0 0 0 0 0 0 0 0 0 0
0 0 0 0 0 0 0 0 0 0 0 0 0 0 0 0 0 0 0 0 0 0 0 0 0 0 0 0 0 0 0 0 0 0 0 0 0 0 0 0 0 0 0
0 0 0 0 0 0 0 0 0 0 0 0 0 0 0 0 0 0 0 0 0 0 0 0 0 0 0 0 0 0 0 0 0 0 0 0 0 0 0 0 0 0 0
0 0 0 0 0 0 0 0 0 0 0 0 0 0 0 0 0 0 0 0 0 0 0 0 0 0 0 0 0 0 0 0 0 0 0 0 0 0 0 0 0 0 0
0 0 0 0 0 0 0 0 0 0 0 0 0 0 0 0 0 0 0 0 0 0 0 0 0 0 0 0 0 0 0 0 0 0 0 0 0 0 0 0 0 0 0
0 0 0 0 0 0 0 0 0 0 0 0 0 0 0 0 0 0 0 0 0 0 0 0 0 0 0 0 0 0 0 0 0 0 0 0 0 0 0 0 0 0 0

GEFSMA_con_cape1000_168.txt.gz
Probability
52 58 61 55 52 42 42 52 45 42 39 35 29 23 23 16 26 26 39 35 39 39 32 35 42 39 32 39 29 39 35 35 39 35 45 52 48 58 55 52 55 48 52
45 48 52 48 45 42 32 39 32 39 39 29 23 16 19 19 26 32 32 32 32 29 32 29 19 23 29 32 26 32 35 42 39 32 35 35 39 42 39 45 35 35 32
45 42 39 39 35 35 29 35 35 32 29 19 26 23 26 23 26 19 16 26 26 26 23 19 23 23 16 29 29 29 32 26 26 39 29 29 26 29 23 16 23 26 23
39 42 39 32 35 29 26 32 29 35 26 29 26 16 23 29 23 16 13 13 26 19 16 13 10 10 13 13 19 19 29 35 23 26 26 23 19 16 16 19 19 19 19
42 39 39 39 39 29 26 26 26 26 26 29 19 29 16 13 19 13 16 19 19 23 16 16 13 10 10 6 10 13 13 13 23 19 16 23 19 10 13 13 13 16 10
32 29 29 32 26 29 26 26 26 29 26 19 10 6 13 10 13 16 13 16 13 10 6 6 13 6 6 10 6 6 6 6 16 16 19 29 19 13 10 13 10 6 6
19 23 26 26 29 26 26 19 19 19 19 23 16 10 10 13 13 10 10 10 6 6 3 6 13 10 10 0 0 3 3 6 10 13 13 29 23 10 6 6 6 10 6
19 16 19 23 26 26 23 19 16 19 19 16 16 16 13 16 13 6 6 6 6 6 6 6 10 13 6 6 0 0 0 3 6 13 13 16 23 6 6 6 6 10 10
16 16 13 16 19 13 16 23 16 16 19 16 16 19 6 10 6 3 3 6 6 6 10 10 6 6 3 6 6 0 0 0 3 0 6 6 6 3 0 6 6 10 6
10 10 13 16 16 16 13 10 13 19 16 16 13 13 3 0 0 0 3 6 6 6 3 0 0 3 3 6 3 0 0 0 0 0 3 6 6 6 0 0 6 3 3
10 6 10 13 10 10 6 10 10 10 13 13 13 13 13 6 0 3 0 0 3 3 3 3 3 3 3 3 6 3 0 0 0 0 0 3 10 3 3 0 3 3 3
10 6 6 6 3 6 13 10 10 10 10 13 13 13 16 10 3 3 0 3 3 3 3 3 3 3 3 3 3 0 0 0 0 0 0 0 6 3 3 3 3 0 3
6 10 3 10 3 3 3 10 13 13 10 6 6 13 13 16 3 3 3 3 3 3 3 3 3 3 3 3 6 0 0 0 0 0 0 0 0 3 0 0 3 0 0
13 10 10 10 3 3 3 3 10 6 3 0 0 0 6 3 3 6 3 0 3 3 3 3 3 3 0 3 0 0 0 0 0 0 0 0 0 0 0 0 0 0 0
6 10 10 6 0 0 0 0 0 0 0 0 0 0 0 3 3 3 6 6 3 3 0 3 3 3 3 3 0 0 3 0 0 0 0 0 0 0 0 0 0 0 0
0 0 0 0 0 0 0 0 0 0 0 0 0 0 0 3 3 3 3 3 6 6 0 0 3 3 3 0 0 3 3 0 0 0 0 0 0 0 0 0 0 0 0
0 0 0 0 0 0 0 0 0 0 0 0 0 0 0 3 3 6 6 3 3 6 3 3 3 3 3 0 0 3 3 0 0 0 0 0 0 0 0 0 0 0 0
0 0 0 0 0 0 0 0 0 0 0 0 0 0 0 0 3 3 3 3 3 3 3 3 3 0 0 0 0 3 0 0 0 0 0 0 0 0 0 0 0 0 0
0 0 0 0 0 0 0 0 0 0 0 0 0 0 0 0 3 3 3 3 3 0 3 3 3 0 0 0 0 0 0 0 0 0 0 0 0 0 0 0 0 0 0
0 0 0 0 0 0 0 0 0 0 0 0 0 0 0 0 0 0 0 0 0 0 0 0 3 0 0 0 0 0 0 0 0 0 0 0 0 0 0 0 0 0 0
0 0 0 0 0 0 0 0 0 0 0 0 0 0 0 0 0 0 0 0 0 3 0 0 0 0 0 0 0 0 0 0 0 0 0 0 0 0 0 0 0 0 0
0 0 0 0 0 0 0 0 0 0 0 0 0 0 0 0 0 0 0 0 0 0 0 0 0 0 0 0 0 0 0 0 0 0 0 0 0 0 0 0 0 0 0
0 0 0 0 0 0 0 0 0 0 0 0 0 0 0 0 0 0 0 0 0 0 0 0 0 0 0 0 0 0 0 0 0 0 0 0 0 0 0 0 0 0 0
0 0 0 0 0 0 0 0 0 0 0 0 0 0 0 0 0 0 0 0 0 0 0 0 0 0 0 0 0 0 0 0 0 0 0 0 0 0 0 0 0 0 0
0 0 0 0 0 0 0 0 0 0 0 0 0 0 0 0 0 0 0 0 0 0 0 0 0 0 0 0 0 0 0 0 0 0 0 0 0 0 0 0 0 0 0
0 0 0 0 0 0 0 0 0 0 0 0 0 0 0 0 0 0 0 0 0 0 0 0 0 0 0 0 0 0 0 0 0 0 0 0 0 0 0 0 0 0 0

GEFSMA_con_cape1000_174.txt.gz
Probability
48 45 55 55 52 55 52 55 55 48 45 35 35 39 35 35 35 29 35 48 55 55 45 39 32 26 39 42 39 45 52 39 42 39 39 39 55 52 48 48 58 61 52
48 52 48 55 52 48 48 48 45 48 42 39 35 32 32 29 32 26 26 39 45 48 42 32 35 29 29 32 39 35 39 39 39 39 42 29 35 39 42 32 35 45 39
45 48 52 45 48 45 45 39 39 39 35 29 32 32 23 29 26 23 23 26 26 26 32 35 32 26 19 29 29 23 35 29 32 32 29 26 23 23 26 23 26 29 23
39 45 45 48 48 48 42 42 39 35 32 29 32 26 26 29 19 26 26 19 16 19 23 23 23 23 23 16 23 29 19 19 26 19 23 16 16 16 10 13 13 13 13
42 45 45 45 45 45 45 32 39 35 29 26 23 26 23 19 16 10 19 19 16 19 16 13 19 19 19 19 16 23 16 23 16 19 13 10 16 16 10 10 13 10 10
39 39 42 39 39 42 35 32 32 32 23 26 19 16 23 19 16 13 13 10 16 16 13 10 10 19 19 19 16 13 13 16 13 10 13 13 16 13 10 6 6 10 10
35 35 35 35 32 29 32 32 29 23 23 23 19 19 19 13 13 16 19 16 10 10 10 10 10 6 6 16 13 13 10 6 13 10 10 13 19 13 6 3 6 6 10
26 23 29 29 29 29 29 29 26 19 19 19 16 13 10 13 16 6 10 13 10 10 3 3 3 3 3 0 0 10 10 6 10 3 3 3 10 16 10 3 3 3 6
23 26 26 23 26 26 26 26 26 23 13 13 19 13 10 6 6 10 10 6 6 3 0 3 0 0 0 3 0 0 6 6 3 0 3 3 3 3 3 6 6 3 3
19 19 19 16 16 19 23 19 23 23 16 13 16 23 16 16 6 3 6 3 3 0 0 0 0 0 0 0 0 0 0 0 0 0 0 0 0 0 0 0 3 0 0
16 13 10 10 16 13 13 23 16 19 13 13 13 19 16 10 6 3 3 3 3 3 0 0 0 0 0 0 0 0 0 0 0 0 0 0 0 0 0 0 3 0 0
13 10 10 6 6 16 16 16 16 13 16 6 6 13 10 13 6 3 3 3 3 3 0 0 0 0 0 0 0 0 0 0 0 0 0 0 0 0 0 0 3 6 6
16 13 10 6 6 10 13 16 13 13 10 10 6 6 10 13 13 3 0 3 3 0 0 0 0 0 0 0 0 0 0 0 0 0 0 0 0 0 0 0 0 6 6
13 13 10 10 10 10 10 13 10 6 3 6 0 6 3 6 6 0 0 0 0 0 0 0 0 0 0 0 0 0 0 0 0 0 0 0 0 0 0 0 0 0 0
10 10 10 6 6 10 10 13 10 6 6 3 3 3 6 0 3 0 3 0 0 0 0 0 0 0 0 0 0 0 3 0 0 0 0 0 0 0 0 0 0 0 0
6 6 6 6 6 6 6 10 6 6 6 3 3 3 6 3 0 0 0 0 0 0 0 0 0 0 0 0 0 0 0 0 0 0 0 0 0 0 0 0 0 0 0
3 0 3 3 3 3 3 3 0 0 0 0 0 0 0 0 0 0 0 0 0 0 0 0 0 0 0 0 0 0 0 0 0 0 0 0 0 0 0 0 0 0 0
0 0 3 3 3 3 3 3 3 0 0 0 0 0 0 0 0 0 3 0 0 0 0 0 0 0 0 0 0 0 0 0 0 0 0 0 0 0 0 0 0 0 0
0 0 0 3 0 0 0 3 3 0 0 0 0 0 0 0 0 0 0 0 0 0 0 0 0 0 0 0 0 0 0 0 0 0 0 0 0 0 0 0 0 0 0
0 0 0 0 0 0 0 0 0 0 0 0 0 0 0 0 0 0 0 0 0 0 0 0 0 0 0 0 0 0 0 0 0 0 0 0 0 0 0 0 0 0 0
0 0 0 0 0 0 0 0 0 0 0 0 0 0 0 0 0 0 0 0 0 0 0 0 0 0 0 0 0 0 0 0 0 0 0 0 0 0 0 0 0 0 0
0 0 0 0 0 0 0 0 0 0 0 0 0 0 0 0 0 0 0 0 0 0 0 0 0 0 0 0 0 0 0 0 0 0 0 0 0 0 0 0 0 0 0
0 0 0 0 0 0 0 0 0 0 0 0 0 0 0 0 0 0 0 0 0 0 0 0 0 0 0 0 0 0 0 0 0 0 0 0 0 0 0 0 0 0 0
0 0 0 3 0 0 0 0 0 0 0 0 3 0 0 0 0 0 0 0 0 0 0 0 0 0 0 0 0 0 0 0 0 0 0 0 0 0 0 0 0 0 0
0 0 0 0 0 0 0 0 0 0 0 0 0 0 0 0 0 0 0 0 0 0 0 0 0 0 0 0 0 0 0 0 0 0 0 0 0 0 0 0 0 0 0
0 0 0 0 0 0 0 0 0 0 0 0 0 0 0 0 0 0 0 0 0 0 0 0 0 0 0 0 0 0 0 0 0 0 0 0 0 0 0 0 0 0 0

GEFSMA_con_cape1000_180.txt.gz
Probability
3 6 6 13 3 0 3 3 3 0 0 0 3 3 0 3 0 10 6 26 48 55 52 52 45 42 45 52 55 58 58 52 48 55 52 52 48 55 55 52 61 58 55
10 6 6 6 0 0 0 6 0 0 0 0 0 0 6 6 0 6 3 16 32 32 39 48 39 35 35 32 42 45 52 55 45 52 52 55 48 42 35 39 42 39 29
16 10 6 3 0 0 0 0 0 0 0 0 0 0 0 0 0 3 3 3 16 23 23 35 42 32 23 19 29 29 39 39 39 39 39 42 39 39 29 29 32 26 26
13 13 13 6 3 3 3 3 0 0 0 0 0 0 0 0 0 0 0 0 10 10 16 19 32 26 23 19 19 23 29 29 29 32 29 26 29 29 26 23 19 19 13
16 10 10 10 6 6 3 3 0 0 0 0 0 0 0 0 0 0 0 0 0 0 0 10 19 19 13 16 16 19 19 16 23 23 23 23 13 13 13 3 6 16 10
16 10 10 3 6 6 3 3 0 0 0 0 0 0 0 0 0 0 0 0 0 0 0 0 0 0 6 10 10 13 13 13 19 13 16 19 13 6 6 10 6 3 3
16 13 13 3 3 3 3 3 0 0 0 0 0 0 0 0 0 0 0 0 0 0 0 0 0 0 0 3 10 10 6 10 10 10 13 13 13 6 6 10 6 3 3
16 19 10 6 3 3 3 3 0 0 0 0 0 0 0 0 0 0 0 0 0 0 0 0 0 0 0 0 0 0 6 3 6 10 13 10 10 3 6 6 10 3 3
6 10 10 6 3 3 3 3 0 0 0 0 0 0 0 0 0 0 0 0 0 0 0 0 0 0 0 0 0 0 3 0 0 0 6 10 6 3 6 6 10 10 3
10 10 6 3 3 3 3 3 0 0 0 0 0 0 0 0 0 0 0 0 0 0 0 0 0 0 0 0 0 0 0 0 0 0 0 0 0 0 3 6 6 10 6
3 3 3 3 3 3 3 3 0 0 0 0 0 0 0 0 0 0 0 0 0 0 0 0 0 0 0 0 0 0 0 0 0 0 0 0 0 0 0 3 3 3 3
3 3 3 3 3 3 3 0 0 0 0 0 0 0 0 0 0 0 0 0 0 0 0 0 0 0 0 0 0 0 0 0 0 0 0 0 0 0 0 0 0 3 3
3 3 3 3 3 0 0 0 0 0 0 0 0 0 0 0 0 0 0 0 0 0 0 0 0 0 0 0 0 0 0 0 0 0 0 0 0 0 0 0 0 3 3
6 3 3 3 0 0 0 0 0 0 0 0 0 0 0 0 0 0 0 0 0 0 0 0 0 0 0 0 0 0 0 0 0 0 0 0 0 0 0 0 0 0 0
0 0 0 0 0 0 0 0 0 0 0 0 0 0 0 0 0 0 0 0 0 0 0 0 0 0 0 0 0 0 0 0 0 0 0 0 0 0 0 0 0 0 0
0 0 0 0 0 0 0 0 0 0 0 0 0 0 0 0 0 0 0 0 0 0 0 0 0 0 0 0 0 0 0 0 0 0 0 0 0 0 0 0 0 0 0
0 0 0 0 0 0 0 0 0 0 0 0 0 0 0 0 0 0 0 0 0 0 0 0 0 0 0 0 0 0 0 0 0 0 0 0 0 0 0 0 0 0 0
0 0 0 0 0 0 0 0 0 0 0 0 0 0 0 0 0 0 0 0 0 0 0 0 0 0 0 0 0 0 0 0 0 0 0 0 0 0 0 0 0 0 0
0 0 0 0 0 0 0 0 0 0 0 0 0 0 0 0 0 0 0 0 0 0 0 0 0 0 0 0 0 0 0 0 0 0 0 0 0 0 0 0 0 0 0
0 0 0 0 0 0 0 0 0 0 0 0 0 0 0 0 0 0 0 0 0 0 0 0 0 0 0 0 0 0 0 0 0 0 0 0 0 0 0 0 0 0 0
0 0 0 0 0 0 0 0 0 0 0 0 0 0 0 0 0 0 0 0 0 0 0 0 0 0 0 0 0 0 0 0 0 0 0 0 0 0 0 0 0 0 0
0 0 0 0 0 0 0 0 0 0 0 0 0 0 0 0 0 0 0 0 0 0 0 0 0 0 0 0 0 0 0 0 0 0 0 0 0 0 0 0 0 0 0
0 0 0 0 0 0 0 0 0 0 0 0 0 0 0 0 0 0 0 0 0 0 0 0 0 0 0 0 0 0 0 0 0 0 0 0 0 0 0 0 0 0 0
0 0 0 0 0 0 0 0 0 0 0 0 0 0 0 0 0 0 0 0 0 0 0 0 0 0 0 0 0 0 0 0 0 0 0 0 0 0 0 0 0 0 0
0 0 0 0 0 0 0 0 0 0 0 0 0 0 0 0 0 0 0 0 0 0 0 0 0 0 0 0 0 0 0 0 0 0 0 0 0 0 0 0 0 0 0
0 0 0 0 0 0 0 0 0 0 0 0 0 0 0 0 0 0 0 0 0 0 0 0 0 0 0 0 0 0 0 0 0 0 0 0 0 0 0 0 0 0 0

GEFSMA_con_cape1000_186.txt.gz
Probability
6 6 10 3 3 3 3 3 10 3 3 3 6 6 6 6 10 10 10 29 45 48 52 48 55 52 55 52 55 55 58 45 58 61 55 45 39 45 55 55 65 61 61
3 6 0 0 0 0 3 3 3 0 3 3 3 3 3 6 13 10 6 13 32 39 39 45 42 42 42 52 55 52 48 42 35 45 48 45 42 45 39 39 35 39 39
0 0 0 0 0 0 3 3 0 0 0 0 0 0 0 0 6 6 6 3 6 19 29 26 35 39 39 42 45 39 45 39 35 32 32 35 35 35 29 26 29 29 29
6 0 0 0 0 0 3 3 0 0 0 0 0 0 0 0 6 6 6 3 3 6 13 26 26 29 35 39 32 26 32 35 35 26 19 23 26 26 13 19 16 13 10
6 6 0 0 0 0 0 0 3 0 0 0 0 0 0 0 0 3 3 0 0 0 3 6 26 23 23 29 29 13 16 23 29 32 23 16 16 19 13 10 3 6 6
0 3 3 3 0 0 0 0 0 0 0 0 0 0 0 0 0 0 3 0 0 0 0 0 13 13 23 19 13 13 13 13 23 23 29 19 16 10 6 6 6 10 6
3 0 0 3 0 0 0 0 0 0 0 0 0 0 0 0 0 0 0 0 0 0 0 0 0 0 3 6 10 6 10 10 16 19 16 16 16 3 10 6 6 6 3
3 6 0 0 0 0 0 0 0 0 0 0 0 0 0 0 0 0 0 0 0 0 0 0 0 0 0 0 0 6 6 6 6 10 13 6 10 3 3 3 3 3 3
3 3 3 0 3 6 6 3 0 0 0 0 0 0 0 0 0 0 0 0 0 0 0 0 0 0 0 0 0 0 0 3 3 3 0 3 3 0 3 3 3 3 3
3 3 3 3 3 3 6 6 0 0 0 0 0 0 0 0 0 0 0 0 0 0 0 0 0 0 0 0 0 0 0 3 0 0 0 0 3 3 0 3 3 3 3
0 3 3 3 3 0 3 0 0 0 0 0 0 0 0 0 0 0 0 0 0 0 0 0 0 0 0 0 0 0 0 0 0 0 0 0 0 0 0 0 0 0 3
0 0 0 0 0 0 0 0 0 0 0 0 0 0 0 0 0 0 0 0 0 0 0 0 0 0 0 0 0 0 0 0 0 0 0 0 0 3 3 0 0 0 0
0 0 0 0 0 0 0 0 0 0 0 0 0 0 0 0 0 0 0 0 0 0 0 0 0 0 0 0 0 0 0 0 0 0 0 0 0 0 0 0 3 3 0
0 0 0 0 0 0 0 0 0 0 0 0 0 0 0 0 0 0 0 0 0 0 0 0 0 0 0 0 0 0 0 0 0 0 0 0 0 0 0 0 0 0 0
0 0 0 0 0 0 0 0 0 0 0 0 0 0 0 0 0 0 0 0 0 0 0 0 0 0 0 0 0 0 0 0 0 0 0 0 0 0 0 0 0 0 0
0 0 0 0 0 0 0 0 0 0 0 0 0 0 0 0 0 0 0 0 0 0 0 0 0 0 0 0 0 0 0 0 0 0 0 0 0 0 0 0 0 0 0
0 0 0 0 0 0 0 0 0 0 0 0 0 0 0 0 0 0 0 0 0 0 0 0 0 0 0 0 0 0 0 0 0 0 0 0 0 0 0 0 0 0 0
0 0 0 0 0 0 0 0 0 0 0 0 0 0 0 0 0 0 0 0 0 0 0 0 0 0 0 0 0 0 0 0 0 0 0 0 0 0 0 0 0 0 0
0 0 0 0 0 0 0 0 0 0 0 0 0 0 0 0 0 0 0 0 0 0 0 0 0 0 0 0 0 0 0 0 0 0 0 0 0 0 0 0 0 0 0
0 0 0 0 0 0 0 0 0 0 0 0 0 0 0 0 0 0 0 0 0 0 0 0 0 0 0 0 0 0 0 0 0 0 0 0 0 0 0 0 0 0 0
0 0 0 0 0 0 0 0 0 0 0 0 0 0 0 0 0 0 0 0 0 0 0 0 0 0 0 0 0 0 0 0 0 0 0 0 0 0 0 0 0 0 0
0 0 0 0 0 0 0 0 0 0 0 0 0 0 0 0 0 0 0 0 0 0 0 0 0 0 0 0 0 0 0 0 0 0 0 0 0 0 0 0 0 0 0
0 0 0 0 0 0 0 0 0 0 0 0 0 0 0 0 0 0 0 0 0 0 0 0 0 0 0 0 0 0 0 0 0 0 0 0 0 0 0 0 0 0 0
0 0 0 0 0 0 0 0 0 0 0 0 0 0 0 0 0 0 0 0 0 0 0 0 0 0 0 0 0 0 0 0 0 0 0 0 0 0 0 0 0 0 0
0 0 0 0 0 0 0 0 0 0 0 0 0 0 0 0 0 0 0 0 0 0 0 0 0 0 0 0 0 0 0 0 0 0 0 0 0 0 0 0 0 0 0
0 0 0 0 0 0 0 0 0 0 0 0 0 0 0 0 0 0 0 0 0 0 0 0 0 0 0 0 0 0 0 0 0 0 0 0 0 0 0 0 0 0 0

GEFSMA_con_cape1000_192.txt.gz
Probability
52 42 45 45 39 39 35 39 32 35 42 35 29 26 23 19 16 10 29 42 42 39 39 48 48 48 52 52 58 58 52 45 48 39 42 42 39 45 52 42 55 65 58
55 48 52 52 42 42 29 32 29 39 35 35 32 32 26 19 19 23 16 32 39 39 39 39 45 45 45 52 52 55 52 48 39 39 39 45 48 35 39 35 32 35 35
55 55 48 45 45 39 35 35 29 32 32 32 29 35 32 32 29 32 19 29 32 35 35 42 35 42 35 42 45 39 39 42 42 39 42 35 23 32 29 29 35 29 23
48 48 39 39 39 32 29 29 29 26 32 32 26 23 23 32 32 29 23 26 32 26 29 35 32 35 32 35 39 35 32 39 32 35 39 35 26 26 23 23 23 26 19
32 35 32 39 32 29 23 23 23 23 26 26 19 26 23 23 29 19 29 23 19 26 32 32 35 29 29 32 35 35 29 29 32 32 29 32 23 23 16 16 19 10 10
26 29 26 29 29 29 29 29 29 26 26 19 13 13 19 23 16 19 16 19 23 23 23 19 26 26 26 26 32 29 35 26 32 29 32 26 16 16 10 10 10 6 6
19 23 16 23 23 26 23 23 23 23 19 19 19 13 10 13 10 26 16 16 19 23 23 23 19 19 23 23 23 32 29 23 23 26 23 19 10 6 6 10 10 3 3
23 13 23 23 19 19 13 16 19 19 19 13 16 6 3 3 10 0 19 16 19 19 16 10 13 16 13 26 16 16 26 19 16 16 23 19 16 10 10 3 3 3 3
16 16 13 19 19 19 16 16 19 16 16 13 6 10 19 6 3 3 10 10 23 16 13 10 10 13 16 19 19 13 13 10 16 13 10 13 16 10 6 3 0 3 3
16 16 16 13 13 16 16 16 16 16 16 10 6 10 19 19 3 6 6 10 6 13 13 3 3 6 10 13 10 0 3 0 3 6 6 6 3 3 3 3 0 3 6
16 16 13 13 13 19 16 13 16 13 13 13 6 10 6 13 3 6 3 3 6 6 10 13 10 6 3 10 10 3 3 0 0 3 0 0 0 0 0 0 0 0 3
16 16 16 13 13 16 13 16 13 13 16 13 13 6 6 10 10 0 0 0 0 0 0 10 3 6 3 3 0 0 0 0 0 0 0 0 0 0 0 0 0 0 0
13 16 16 19 19 10 10 10 10 10 10 16 19 13 6 10 6 0 6 3 0 0 0 0 0 0 0 3 0 0 0 0 0 0 0 0 0 0 0 0 3 0 0
13 13 16 16 13 10 6 3 3 3 6 10 10 3 13 6 3 6 3 3 3 0 0 0 0 0 0 3 0 0 0 0 0 0 0 0 0 0 0 0 0 0 0
10 6 6 10 10 10 3 3 3 3 3 6 6 6 6 6 10 0 3 6 3 0 0 0 0 0 0 0 0 0 0 0 0 0 0 0 0 0 0 0 0 0 0
6 10 10 6 6 3 3 3 3 3 3 3 6 6 3 6 3 3 3 0 0 0 0 0 0 0 0 0 0 0 0 0 0 0 0 0 0 0 0 0 0 0 0
6 6 6 3 0 3 3 3 3 3 3 3 3 3 3 3 3 0 0 3 0 0 0 0 0 0 0 0 0 0 0 3 3 0 0 0 0 0 0 0 0 0 0
0 0 3 3 0 0 3 3 0 0 0 0 0 0 0 0 3 0 0 0 0 0 0 0 0 0 0 0 0 0 0 0 0 0 0 0 0 0 0 0 0 0 0
0 0 0 0 0 0 0 0 3 0 0 0 0 0 0 0 0 0 0 0 0 0 3 0 0 0 0 0 0 0 0 0 0 0 0 0 0 0 0 0 0 0 0
0 0 0 0 0 0 0 0 3 0 3 0 0 0 0 0 0 0 0 3 3 0 3 3 3 3 0 0 0 0 0 0 0 0 0 0 0 0 0 0 0 0 0
0 0 0 0 0 0 0 0 0 0 0 0 3 3 3 0 0 0 0 3 3 3 0 0 3 3 0 0 3 6 3 3 0 0 0 0 0 0 0 0 0 0 0
0 0 0 0 0 0 0 0 0 0 0 0 3 3 0 0 0 0 0 0 0 0 0 0 3 3 3 0 3 3 3 6 6 0 0 0 0 0 0 0 0 0 0
0 0 0 0 0 0 0 0 0 0 0 0 3 3 0 0 0 0 0 0 0 0 0 0 3 3 3 0 3 3 3 3 3 3 3 0 0 0 0 0 0 0 0
0 0 0 0 0 0 0 0 0 0 0 0 3 3 3 3 0 0 0 0 0 0 0 0 0 0 0 6 3 3 3 0 0 3 3 0 3 3 0 0 0 0 0
3 3 0 0 0 0 0 0 0 0 0 0 0 0 3 0 0 0 0 0 0 0 0 0 0 0 0 0 0 0 0 3 0 0 3 0 0 3 0 0 0 0 0
3 0 0 0 0 0 0 0 0 0 0 0 0 0 0 0 0 0 0 0 0 0 0 0 0 0 0 0 0 0 0 0 0 0 0 3 0 0 0 0 0 0 0

GEFSMA_con_cape1000_198.txt.gz
Probability
55 55 55 48 42 42 39 39 39 35 42 39 29 23 26 26 26 29 32 35 48 48 42 42 39 39 48 45 42 45 45 45 52 52 52 45 45 42 52 55 52 48 48
52 52 48 45 42 42 35 39 39 35 42 35 32 29 32 29 26 26 29 29 32 42 42 48 42 35 42 42 45 45 45 42 48 52 48 42 29 42 42 39 45 39 42
48 48 45 39 35 35 35 39 39 35 32 32 35 29 32 32 32 29 29 23 26 32 45 52 45 45 45 45 45 48 48 48 52 45 35 32 32 29 35 35 35 32 32
39 42 39 39 39 32 32 35 35 29 32 32 29 32 29 32 32 32 26 26 29 19 35 48 48 45 45 45 48 45 48 48 45 45 39 29 32 29 23 19 29 29 29
32 35 32 32 29 26 29 29 32 29 23 23 23 26 26 26 23 19 26 23 26 32 29 42 45 48 42 45 48 48 45 48 48 42 39 39 29 23 19 16 13 13 13
32 32 29 32 32 32 29 19 23 23 19 19 10 10 23 23 23 23 19 16 19 23 23 23 26 42 42 39 39 45 45 45 48 45 35 29 26 23 13 10 13 6 6
26 29 29 29 26 29 26 26 16 13 10 13 16 10 13 19 19 19 19 19 10 19 19 23 29 23 19 32 35 32 35 42 39 42 39 26 29 23 16 13 10 10 6
29 23 29 29 26 26 19 19 16 6 6 6 10 10 13 16 13 6 13 13 13 19 13 13 26 16 10 10 13 23 26 32 35 35 32 29 23 19 13 13 13 13 6
26 23 23 23 23 23 23 16 16 6 6 6 6 10 3 3 13 13 13 13 16 13 13 16 16 6 6 6 10 10 19 16 19 23 26 16 16 16 13 13 6 10 6
23 23 19 16 19 23 16 16 10 10 10 6 10 10 10 13 6 6 3 3 0 6 10 0 6 6 6 3 10 6 3 3 10 23 13 10 6 6 13 13 3 3 6
23 19 19 16 19 19 19 23 10 10 10 10 10 10 6 6 3 3 0 0 0 0 6 6 6 3 3 6 6 0 3 3 3 3 3 3 3 6 3 6 3 6 6
23 19 16 19 16 19 19 23 13 13 13 10 10 10 6 3 3 3 0 0 0 3 3 6 3 6 3 6 0 3 0 3 3 3 6 3 6 10 3 6 3 0 0
23 19 10 19 16 16 23 16 10 13 13 10 10 6 6 3 3 0 0 0 0 0 0 0 0 6 3 0 0 0 0 0 0 0 0 0 0 0 3 3 3 0 0
16 13 16 16 16 13 10 10 13 10 6 6 6 3 3 3 6 3 3 3 0 0 0 0 0 0 0 0 0 0 0 0 0 0 0 0 0 0 0 0 0 0 0
16 10 16 13 10 13 10 13 6 10 10 10 10 6 6 6 0 0 3 0 0 0 0 0 0 0 0 0 0 0 0 0 0 0 0 0 0 0 0 0 0 0 0
6 6 13 10 10 6 6 10 10 10 6 6 10 10 3 3 3 3 0 3 0 0 0 0 0 0 0 0 0 0 0 0 0 0 0 0 0 0 0 0 0 0 0
10 10 10 6 6 6 3 0 0 3 3 6 6 6 3 3 3 3 3 3 0 0 0 0 0 0 0 0 3 3 0 0 0 0 0 0 0 0 0 0 0 0 0
6 10 6 6 6 6 3 0 0 0 0 6 6 6 3 3 3 3 3 3 0 0 0 0 0 0 0 0 3 3 0 0 0 0 0 0 0 0 0 0 0 0 0
10 6 6 6 6 3 3 0 0 0 0 3 3 3 3 3 0 0 3 3 0 0 0 0 0 0 0 0 0 0 0 0 0 0 0 0 0 0 0 0 0 0 0
6 6 6 6 0 0 0 0 0 0 0 0 0 0 0 0 0 3 3 3 3 0 0 0 0 0 0 0 0 0 0 0 0 0 0 0 0 0 0 0 0 0 0
0 0 0 0 0 0 0 0 0 0 0 0 0 0 0 0 0 0 0 0 0 3 0 0 0 0 0 0 0 0 0 0 0 0 0 0 0 0 0 0 0 0 0
0 3 0 3 0 0 0 0 0 0 0 0 0 0 0 0 0 0 0 0 0 0 0 0 0 0 0 0 0 0 0 0 0 0 0 0 0 0 0 0 0 0 0
3 3 3 0 0 0 0 0 0 0 0 0 0 0 0 0 0 3 3 0 0 0 0 0 0 0 0 0 0 0 0 0 0 0 0 0 0 0 0 0 0 0 0
3 6 0 3 0 0 0 0 0 0 0 0 0 3 3 0 0 0 0 0 0 0 0 0 0 0 0 0 0 0 0 0 0 0 0 0 0 0 0 0 0 0 0
6 3 3 0 0 0 0 0 0 0 0 0 0 0 0 0 0 0 0 0 0 3 0 0 0 0 0 0 0 0 0 0 0 0 0 0 0 0 0 0 0 0 0
6 0 0 0 3 0 0 0 0 0 0 0 0 0 0 0 0 0 0 0 3 3 3 0 0 0 0 0 0 0 0 0 0 0 0 0 0 0 0 0 0 0 0

GEFSMA_con_cape1000_204.txt.gz
Probability
26 16 19 16 23 23 19 19 16 16 16 13 10 6 3 3 3 3 0 35 42 35 32 39 39 42 42 48 48 48 45 45 45 48 48 48 48 58 55 55 58 65 52
19 16 16 16 16 16 6 6 6 3 6 0 0 0 3 3 3 0 0 10 35 39 35 35 35 35 42 48 52 55 48 48 48 45 48 48 42 35 45 52 48 48 48
16 16 16 10 10 6 3 0 0 0 0 0 0 0 0 3 3 3 3 3 10 29 35 35 48 42 42 45 42 42 48 48 48 45 45 48 42 42 39 42 32 35 35
16 13 10 10 3 3 3 3 0 0 0 0 0 0 0 0 0 0 0 0 0 0 16 39 45 45 39 39 39 39 48 48 48 48 48 45 42 39 45 29 29 26 26
19 19 16 6 3 3 3 3 3 0 0 0 0 0 0 0 0 0 0 3 0 0 0 3 42 45 35 39 45 48 45 45 48 52 45 42 35 39 35 26 26 19 13
23 16 6 10 6 6 3 3 3 0 0 0 0 0 0 0 0 0 0 0 0 0 0 0 0 10 35 39 39 35 39 45 45 48 48 42 39 29 16 13 6 16 13
16 13 10 3 3 6 3 0 0 0 0 0 0 0 0 0 0 0 0 0 0 0 0 0 0 0 0 19 29 32 23 32 42 39 39 39 32 26 10 3 0 3 6
13 13 3 3 0 0 0 0 0 0 0 3 0 0 0 0 0 0 0 0 0 0 0 0 0 0 0 0 0 16 16 23 29 29 32 32 35 26 16 3 3 0 3
6 6 3 3 0 0 0 0 0 3 3 0 0 0 0 0 0 0 0 0 0 0 0 0 0 0 0 0 0 0 10 16 16 16 23 23 19 16 16 10 6 10 6
6 3 3 3 0 0 0 0 3 3 3 0 0 0 0 0 0 0 0 0 0 0 0 0 0 0 0 0 0 0 0 0 6 10 13 13 10 6 10 13 6 6 6
3 3 3 3 0 0 0 3 0 3 0 0 0 0 0 0 0 0 0 0 0 0 0 0 0 0 0 0 0 0 0 0 3 6 10 6 6 6 3 3 3 3 3
0 0 0 3 0 0 0 0 0 0 0 0 0 0 0 0 0 0 0 0 0 0 0 0 0 0 0 0 0 0 0 0 0 0 10 6 3 6 0 0 3 6 0
0 0 0 0 0 0 0 0 0 0 0 0 0 0 0 0 0 0 0 0 0 0 0 0 0 0 0 0 0 0 0 0 0 0 3 3 0 0 0 3 6 6 3
3 0 0 0 0 0 0 0 0 0 0 0 0 0 0 0 0 0 0 0 0 0 0 0 0 0 0 0 0 0 0 0 0 0 0 0 3 3 3 0 0 0 0
3 0 0 0 0 0 0 0 0 0 0 0 0 0 0 0 0 0 0 0 0 0 0 0 0 0 0 0 0 0 0 0 0 0 0 0 0 0 0 0 0 0 0
0 3 0 0 0 0 0 0 0 0 0 0 0 0 0 0 0 0 0 0 0 0 0 0 0 0 0 0 0 0 0 0 0 0 0 0 0 0 0 0 0 0 0
0 0 0 0 0 0 0 0 0 0 0 0 0 0 0 0 0 0 0 0 0 0 0 0 0 0 0 0 0 0 0 0 0 0 0 0 0 0 0 0 0 0 0
0 0 0 0 0 0 0 0 0 0 0 0 0 0 0 0 0 0 0 0 0 0 0 0 0 0 0 0 0 0 0 0 0 0 0 0 0 0 0 0 0 0 0
0 0 0 0 0 0 0 0 0 0 0 0 0 0 0 0 0 0 0 0 0 0 0 0 0 0 0 0 0 0 0 0 0 0 0 0 0 0 0 0 0 0 0
0 0 0 0 0 0 0 0 0 0 0 0 0 0 0 0 0 0 0 0 0 0 0 0 0 0 0 0 0 0 0 0 0 0 0 0 0 0 0 0 0 0 0
0 0 0 0 0 0 0 0 0 0 0 0 0 0 0 0 0 0 0 0 0 0 0 0 0 0 0 0 0 0 0 0 0 0 0 0 0 0 0 0 0 0 0
0 0 0 0 0 0 0 0 0 0 0 0 0 0 0 0 0 0 0 0 0 0 0 0 0 0 0 0 0 0 0 0 0 0 0 0 0 0 0 0 0 0 0
0 0 0 0 0 0 0 0 0 0 0 0 0 0 0 0 0 0 0 0 0 0 0 0 0 0 0 0 0 0 0 0 0 0 0 0 0 0 0 0 0 0 0
0 0 0 0 0 0 0 0 0 0 0 0 0 0 0 0 0 0 0 0 0 0 0 0 0 0 0 0 0 0 0 0 0 0 0 0 0 0 0 0 0 0 0
0 0 0 0 0 0 0 0 0 0 0 0 0 0 0 0 0 0 0 0 0 0 0 0 0 0 0 0 0 0 0 0 0 0 0 0 0 0 0 0 0 0 0
0 0 0 0 0 0 0 0 0 0 0 0 0 0 0 0 0 0 0 0 0 0 0 0 0 0 0 0 0 0 0 0 0 0 0 0 0 0 0 0 0 0 0

GEFSMA_con_cape1000_210.txt.gz
Probability
16 13 13 13 10 13 16 19 19 16 16 19 16 16 19 16 16 16 10 23 35 35 32 32 35 35 35 42 45 42 45 48 45 42 45 45 45 42 45 48 48 52 58
6 6 6 10 6 10 13 10 6 10 10 6 3 6 6 10 10 10 6 10 26 32 35 32 32 32 32 35 35 39 45 52 48 45 45 42 39 42 42 45 48 52 45
10 13 10 10 6 10 6 6 6 3 3 3 3 3 3 3 6 6 6 6 6 13 26 29 29 26 29 32 32 29 42 42 52 45 39 35 39 35 39 39 42 42 35
10 6 6 6 10 10 6 3 3 3 3 3 3 3 3 3 0 0 0 3 6 6 10 26 29 26 29 29 32 32 35 35 39 42 42 35 35 32 32 32 39 39 29
13 6 10 10 10 6 3 3 0 0 0 0 0 0 0 0 0 0 0 0 3 6 6 6 23 19 23 26 26 26 32 29 29 35 35 35 39 32 29 29 32 23 26
13 13 13 10 3 3 0 0 0 0 0 0 0 0 0 0 0 0 0 0 0 0 0 6 10 13 19 26 26 23 23 32 29 35 29 32 32 35 29 23 23 23 23
13 13 13 6 3 3 0 0 0 0 0 0 0 0 0 0 0 0 0 0 0 0 0 0 3 3 6 6 13 16 16 23 29 32 32 35 32 29 19 16 10 13 16
10 16 6 3 3 3 0 0 0 0 0 0 0 0 0 0 0 0 0 0 0 0 0 0 0 0 0 0 0 10 10 13 19 23 26 29 29 19 16 16 13 13 10
6 6 6 3 0 3 0 0 0 0 0 0 0 0 0 0 0 0 0 0 0 0 0 0 0 0 0 0 0 0 0 10 13 16 19 23 16 13 13 19 16 10 10
0 0 6 3 0 3 0 0 0 0 0 0 0 0 0 0 0 0 0 0 0 0 0 0 0 0 0 0 0 0 0 0 0 13 13 16 16 10 10 10 10 10 6
0 0 0 0 0 0 0 0 0 0 0 0 0 0 0 0 0 0 0 0 0 0 0 0 0 0 0 0 0 0 0 0 0 0 0 3 10 13 6 6 3 6 6
0 0 0 0 0 0 0 0 0 0 0 0 0 0 0 0 0 0 0 0 0 0 0 0 0 0 0 0 0 0 0 0 0 0 0 0 3 10 13 6 6 6 6
0 0 0 0 0 0 0 0 0 0 0 0 0 0 0 0 0 0 0 0 0 0 0 0 0 0 0 0 0 0 0 0 0 0 0 0 0 3 10 6 6 6 3
0 0 0 0 0 0 0 0 0 0 0 0 0 0 0 0 0 0 0 0 0 0 0 0 0 0 0 0 0 0 0 0 0 0 0 0 0 0 0 3 3 3 3
0 0 0 0 0 0 0 0 0 0 0 0 0 0 0 0 0 0 0 0 0 0 0 0 0 0 0 0 0 0 0 0 0 0 0 0 0 0 0 0 0 0 0
0 0 0 0 0 0 0 0 0 0 0 0 0 0 0 0 0 0 0 0 0 0 0 0 0 0 0 0 0 0 0 0 0 0 0 0 0 0 0 0 0 0 0
0 0 0 0 0 0 0 0 0 0 0 0 0 0 0 0 0 0 0 0 0 0 0 0 0 0 0 0 0 0 0 0 0 0 0 0 0 0 0 0 0 0 0
0 0 0 0 0 0 0 0 0 0 0 0 0 0 0 0 0 0 0 0 0 0 0 0 0 0 0 0 0 0 0 0 0 0 0 0 0 0 0 0 0 0 0
0 0 0 0 0 0 0 0 0 0 0 0 0 0 0 0 0 0 0 0 0 0 0 0 0 0 0 0 0 0 0 0 0 0 0 0 0 0 0 0 0 0 0
0 0 0 0 0 0 0 0 0 0 0 0 0 0 0 0 0 0 0 0 0 0 0 0 0 0 0 0 0 0 0 0 0 0 0 0 0 0 0 0 0 0 0
0 0 0 0 0 0 0 0 0 0 0 0 0 0 0 0 0 0 0 0 0 0 0 0 0 0 0 0 0 0 0 0 0 0 0 0 0 0 0 0 0 0 0
0 0 0 0 0 0 0 0 0 0 0 0 0 0 0 0 0 0 0 0 0 0 0 0 0 0 0 0 0 0 0 0 0 0 0 0 0 0 0 0 0 0 0
0 0 0 0 0 0 0 0 0 0 0 0 0 0 0 0 0 0 0 0 0 0 0 0 0 0 0 0 0 0 0 0 0 0 0 0 0 0 0 0 0 0 0
0 0 0 0 0 0 0 0 0 0 0 0 0 0 0 0 0 0 0 0 0 0 0 0 0 0 0 0 0 0 0 0 0 0 0 0 0 0 0 0 0 0 0
0 0 0 0 0 0 0 0 0 0 0 0 0 0 0 0 0 0 0 0 0 0 0 0 0 0 0 0 0 0 0 0 0 0 0 0 0 0 0 0 0 0 0
0 0 0 0 0 0 0 0 0 0 0 0 0 0 0 0 0 0 0 0 0 0 0 0 0 0 0 0 0 0 0 0 0 0 0 0 0 0 0 0 0 0 0

GEFSMA_con_cape1000_216.txt.gz
Probability
52 45 55 48 39 32 29 32 29 23 23 26 26 23 23 23 23 26 32 35 39 39 39 42 35 35 39 45 48 48 48 42 42 48 42 45 42 42 45 45 48 52 48
48 52 48 45 39 35 32 32 26 32 32 32 26 19 19 23 23 26 26 26 26 35 39 29 29 32 35 39 39 32 35 32 32 39 42 45 39 42 39 39 45 45 42
42 45 39 45 39 39 39 32 32 32 32 29 23 26 32 29 26 23 23 19 19 23 23 29 26 29 32 35 32 29 26 32 39 35 35 35 35 35 39 39 39 39 35
39 45 42 39 39 39 39 35 32 32 26 26 23 26 16 19 19 19 19 10 13 13 19 23 26 29 29 29 29 29 26 26 32 35 39 29 26 26 32 35 35 35 32
35 45 42 42 39 35 35 29 32 32 29 26 13 19 16 16 16 10 10 10 13 19 16 16 19 26 29 26 26 23 26 26 32 35 35 26 29 26 26 26 26 29 26
39 39 42 42 35 29 32 32 32 32 26 23 10 6 13 16 10 16 13 10 13 13 13 13 16 10 16 19 16 19 19 16 26 32 35 23 23 23 23 19 26 26 19
35 35 26 39 35 35 32 29 26 26 19 23 13 13 13 6 10 6 10 10 10 13 19 16 16 13 16 16 16 19 23 19 16 13 26 29 23 23 16 19 10 16 19
29 29 29 26 26 26 29 29 26 16 16 19 16 10 0 6 10 3 10 10 10 6 13 10 13 13 16 19 10 19 19 19 19 19 23 19 26 23 23 16 13 10 6
26 26 23 23 23 19 19 26 26 19 19 13 13 10 6 0 3 10 13 6 6 6 10 13 13 13 10 16 13 6 10 10 19 16 23 23 19 13 13 16 23 13 6
26 26 26 23 23 19 23 26 19 16 10 13 13 10 10 10 6 10 10 10 6 13 10 3 3 6 6 13 6 3 3 3 13 16 13 13 13 10 10 16 13 16 16
32 26 19 23 23 16 16 13 10 10 10 10 6 6 6 10 6 6 10 10 6 10 10 6 10 6 10 6 10 6 3 0 0 3 3 6 6 6 6 10 13 16 16
26 23 16 10 13 13 13 10 10 6 13 10 6 6 10 10 6 6 3 6 6 6 6 6 6 3 3 6 3 0 0 0 0 0 0 0 0 3 6 6 10 16 16
16 23 16 16 13 13 10 10 10 6 6 6 3 6 10 10 6 3 3 3 3 3 3 3 3 3 3 3 3 0 0 0 0 0 0 0 0 0 0 0 6 6 13
10 16 19 19 10 3 6 10 13 3 3 3 3 10 6 10 6 6 6 3 3 3 6 3 6 3 3 3 3 0 0 0 0 0 0 0 0 0 0 0 0 0 0
3 6 13 10 6 6 6 6 6 6 3 3 3 3 6 10 10 3 3 3 6 3 0 6 6 3 3 6 0 3 3 0 0 0 0 0 0 0 0 0 0 0 0
0 6 6 6 6 10 6 3 0 3 3 3 3 3 3 3 3 6 6 6 6 6 0 0 6 3 6 0 0 3 6 0 0 0 0 0 0 0 0 0 0 0 0
6 6 10 3 6 6 6 3 3 3 3 3 3 3 3 6 6 6 6 10 13 6 6 3 10 3 3 3 3 0 0 3 3 0 0 0 0 0 0 0 0 0 0
6 6 0 0 0 3 3 3 3 3 3 3 3 3 0 0 6 10 10 10 6 6 6 10 6 3 3 6 6 6 0 0 0 0 0 0 0 0 0 0 0 0 0
3 10 6 3 3 3 3 3 3 3 3 3 3 0 0 0 6 6 10 6 6 3 10 6 0 3 0 0 0 0 0 3 0 0 0 0 0 0 0 0 0 0 0
6 13 13 3 3 3 3 3 3 3 3 3 3 0 0 0 6 6 0 6 3 6 10 3 0 3 3 3 3 0 0 6 0 0 0 0 0 0 0 0 0 0 0
3 10 6 6 3 3 0 3 3 3 3 3 3 0 0 0 0 0 0 3 0 3 6 6 3 6 3 3 3 3 0 0 3 3 3 3 3 0 0 0 0 0 0
6 6 3 3 3 0 0 0 0 3 3 0 0 3 3 3 0 0 0 0 0 0 6 0 0 3 3 3 6 3 3 0 0 3 3 3 3 0 3 3 0 0 0
3 6 3 3 3 3 0 0 0 0 0 0 0 3 0 0 0 0 0 0 0 0 0 0 0 0 0 6 6 3 3 3 0 0 0 3 3 6 10 3 0 0 0
3 0 0 0 6 0 0 0 0 0 0 0 0 3 3 3 3 0 0 0 0 0 0 0 3 0 0 0 6 3 10 3 3 6 3 3 6 6 3 6 0 0 0
0 0 0 0 0 0 0 0 0 0 0 0 0 0 3 3 0 0 0 0 0 0 0 0 0 0 0 0 0 3 0 3 3 3 0 0 6 6 6 6 0 0 0
0 0 0 0 0 0 0 0 0 0 0 0 0 0 0 0 0 0 0 0 0 0 0 0 0 0 0 0 0 0 3 3 3 0 3 0 0 3 0 6 3 0 0

GEFSMA_con_cape1000_222.txt.gz
Probability
65 61 65 55 55 52 52 52 45 45 35 29 26 23 23 23 29 23 26 39 52 39 42 42 42 42 42 45 42 45 48 42 45 42 42 45 42 52 52 52 48 48 45
58 58 55 58 52 52 48 45 45 45 39 42 32 32 19 16 26 29 29 26 35 42 35 35 39 39 35 45 45 48 45 45 42 42 42 42 45 42 45 45 42 45 45
58 55 55 52 45 39 45 45 42 45 39 39 32 29 23 26 23 26 26 23 23 32 35 32 39 39 35 39 42 45 45 45 45 42 39 39 45 42 32 32 35 35 42
48 52 48 39 45 42 45 42 35 35 35 35 35 35 29 32 26 26 26 19 19 19 23 35 39 39 32 35 39 39 39 35 39 35 32 32 35 35 32 32 26 32 29
42 35 32 32 39 39 35 35 35 32 29 23 29 29 32 26 23 26 23 13 13 19 13 19 29 26 29 29 29 32 32 26 32 29 29 32 32 29 29 26 23 23 26
32 39 29 29 39 35 35 39 32 29 32 26 10 16 19 16 23 13 10 10 13 16 16 13 13 16 26 32 26 23 23 23 35 32 32 32 29 26 23 13 19 19 16
35 32 29 32 29 29 26 29 26 23 19 23 19 19 13 16 13 16 13 16 13 13 16 16 13 13 13 19 23 29 23 19 23 29 26 32 32 29 13 13 13 10 13
29 23 32 35 32 32 29 26 26 13 13 16 16 13 10 6 10 6 10 13 10 13 13 10 10 10 10 13 16 19 23 19 23 29 26 35 32 29 23 16 13 13 10
19 26 19 23 29 26 26 23 16 13 13 10 19 16 3 3 6 6 6 6 10 10 6 6 13 10 10 6 6 10 26 23 26 26 32 26 29 26 23 19 16 16 13
19 19 23 19 23 26 23 19 16 16 13 13 13 13 3 3 3 6 6 6 6 6 3 3 3 13 10 10 10 6 10 6 16 16 19 19 23 19 19 13 13 13 19
19 19 23 29 26 26 23 16 10 10 13 10 10 10 3 3 3 3 3 3 3 3 3 3 3 3 10 6 10 10 3 0 0 3 10 13 19 16 16 19 13 13 13
13 16 19 23 29 26 13 13 13 13 13 13 13 3 3 3 3 3 3 0 0 0 0 3 3 3 6 10 6 3 0 0 0 0 3 3 10 16 16 19 13 13 13
16 16 13 26 26 23 19 16 13 10 6 6 6 3 3 3 3 3 0 0 0 0 0 3 3 3 6 3 3 3 0 0 0 0 0 3 3 3 6 10 13 13 13
19 19 19 19 19 16 13 16 13 10 6 6 6 3 6 6 6 6 0 0 0 0 0 0 3 6 6 3 3 3 3 0 0 0 0 0 0 0 0 3 3 3 3
16 16 16 16 26 16 16 13 13 10 6 10 3 3 3 0 0 0 0 0 0 0 0 0 3 3 3 3 3 3 3 0 0 0 0 0 0 0 0 0 0 0 0
13 13 13 13 23 16 13 16 10 13 13 13 3 0 0 0 0 0 0 0 0 0 0 0 0 3 3 3 3 3 3 0 0 0 0 0 0 0 0 0 0 0 0
16 16 10 10 13 13 16 13 10 13 3 0 0 0 0 0 0 0 0 0 0 0 0 0 0 0 3 3 3 3 3 3 0 0 0 0 0 0 0 0 0 0 0
10 6 6 6 10 10 13 10 3 3 0 3 0 0 0 0 0 0 0 0 0 0 0 0 0 0 0 3 6 3 3 3 0 0 0 0 0 0 0 0 0 0 0
6 3 10 10 10 13 13 13 3 3 3 0 0 0 0 0 0 0 0 0 0 0 0 0 0 0 0 3 3 3 3 3 0 0 0 0 0 0 0 0 0 0 0
6 10 10 10 13 10 6 3 3 3 3 3 3 0 0 0 0 0 0 0 0 0 0 0 0 0 0 0 3 3 3 0 0 0 0 0 0 0 0 0 0 0 0
6 10 6 6 6 0 0 0 0 3 3 3 3 0 0 0 0 0 0 0 0 0 0 0 0 0 0 3 0 0 0 0 0 0 0 0 0 0 0 0 0 0 0
6 6 6 6 3 0 0 0 0 0 0 0 0 0 0 0 0 0 0 0 0 0 0 0 0 0 0 0 3 0 0 0 0 0 0 0 0 0 0 0 0 0 0
6 10 6 6 3 0 0 0 0 3 3 0 0 0 0 0 0 0 0 0 0 0 0 0 0 0 0 0 3 0 0 0 0 0 0 0 0 0 0 0 0 0 0
10 3 6 6 3 0 0 0 0 0 0 0 0 0 0 0 0 0 0 0 0 0 0 0 3 0 0 0 0 0 0 0 0 0 0 0 0 0 0 0 0 0 0
10 3 3 0 6 0 0 0 0 0 0 0 0 0 0 0 0 0 0 0 0 0 0 0 0 0 0 0 0 0 0 0 0 0 0 0 0 0 0 0 0 0 0
6 3 0 0 3 3 0 0 0 0 0 0 0 0 0 0 0 0 0 0 0 0 0 0 0 0 0 0 0 0 0 0 0 0 0 0 0 0 0 0 0 0 0

GEFSMA_con_cape1000_228.txt.gz
Probability
23 19 19 19 19 23 19 16 19 19 23 19 16 16 16 13 13 13 10 23 52 48 45 42 42 42 45 48 48 52 61 48 48 48 48 48 48 45 45 42 45 42 48
23 23 19 26 23 16 16 19 23 19 16 13 10 13 10 13 10 3 6 6 35 48 45 48 42 45 48 45 45 48 52 48 45 45 48 48 45 39 39 42 35 35 35
16 23 19 23 16 19 19 16 19 10 10 10 6 3 3 6 6 6 3 3 10 32 39 48 45 42 35 35 39 39 39 48 45 45 52 42 45 35 29 35 39 35 29
13 16 19 19 13 10 10 6 6 6 6 3 6 3 3 3 6 6 6 6 3 3 13 39 35 39 32 35 35 32 35 39 42 42 42 39 35 35 35 32 23 26 23
13 13 16 19 13 10 3 3 3 3 3 3 3 0 3 3 3 6 6 6 3 3 3 13 26 39 32 35 42 39 35 35 32 32 32 29 32 32 29 26 23 23 23
13 10 13 13 10 10 6 3 3 3 3 3 0 0 0 0 3 3 6 3 3 3 3 6 10 13 26 32 32 35 35 35 32 26 26 32 35 32 29 19 13 16 16
6 6 10 10 10 13 3 3 3 3 3 0 0 0 0 0 0 0 3 3 3 3 3 3 3 3 6 19 29 26 23 29 29 26 26 39 45 32 26 23 6 6 6
6 6 10 10 10 6 6 3 3 3 0 0 0 0 0 0 0 0 0 0 0 3 3 3 3 3 3 3 6 19 26 32 32 29 32 35 42 35 26 16 10 3 6
10 10 10 10 10 6 6 3 0 0 0 0 0 0 0 0 0 0 0 0 0 0 0 3 3 3 3 3 3 6 10 16 16 13 32 35 26 23 23 13 13 6 3
10 10 10 10 10 6 0 0 0 0 0 0 0 0 0 0 0 0 0 0 0 0 0 0 0 0 3 3 3 6 6 6 6 13 23 19 16 16 19 16 13 13 6
6 10 6 6 6 3 0 0 0 0 0 0 0 0 0 0 0 0 0 0 0 0 0 0 0 0 0 0 3 3 6 6 6 6 6 10 13 13 10 19 19 16 10
6 6 6 6 6 3 0 0 0 0 0 0 0 0 0 0 0 0 0 0 0 0 0 0 0 0 0 0 0 3 3 0 0 3 3 3 3 6 10 6 10 10 13
6 6 6 6 3 3 3 0 0 0 0 0 0 0 0 0 0 0 0 0 0 0 0 0 0 0 0 0 0 0 0 0 0 0 0 0 3 3 3 3 6 3 6
3 3 3 6 3 3 3 0 0 0 0 0 0 0 0 0 0 0 0 0 0 0 0 0 0 0 0 0 0 0 0 0 0 0 0 0 0 0 3 3 3 3 3
3 3 0 0 0 3 3 3 3 0 0 0 0 0 0 0 0 0 0 0 0 0 0 0 0 0 0 0 0 0 0 0 0 0 0 0 0 0 0 0 0 0 0
3 3 0 0 0 0 0 3 3 0 0 0 0 0 0 0 0 0 0 0 0 0 0 0 0 0 0 0 0 0 0 0 0 0 0 0 0 0 0 0 0 0 0
0 0 0 0 0 0 0 0 0 0 0 0 0 0 0 0 0 0 0 0 0 0 0 0 0 0 0 0 0 0 0 0 0 0 0 0 0 0 0 0 0 0 0
3 0 0 0 0 0 0 0 0 0 0 0 0 0 0 0 0 0 0 0 0 0 0 0 0 0 0 0 0 0 0 0 0 0 0 0 0 0 0 0 0 0 0
0 0 0 0 0 0 0 0 0 0 0 0 0 0 0 0 0 0 0 0 0 0 0 0 0 0 0 0 0 0 0 0 0 0 0 0 0 0 0 0 0 0 0
0 0 0 0 0 0 0 0 0 0 0 0 0 0 0 0 0 0 0 0 0 0 0 0 0 0 0 0 0 0 0 0 0 0 0 0 0 0 0 0 0 0 0
0 0 0 0 0 0 0 0 0 0 0 0 0 0 0 0 0 0 0 0 0 0 0 0 0 0 0 0 0 0 0 0 0 0 0 0 0 0 0 0 0 0 0
0 0 0 0 0 0 0 0 0 0 0 0 0 0 0 0 0 0 0 0 0 0 0 0 0 0 0 0 0 0 0 0 0 0 0 0 0 0 0 0 0 0 0
0 0 0 0 0 0 0 0 0 0 0 0 0 0 0 0 0 0 0 0 0 0 0 0 0 0 0 0 0 0 0 0 0 0 0 0 0 0 0 0 0 0 0
0 0 0 0 0 0 0 0 0 0 0 0 0 0 0 0 0 0 0 0 0 0 0 0 0 0 0 0 0 0 0 0 0 0 0 0 0 0 0 0 0 0 0
0 0 0 0 0 0 0 0 0 0 0 0 0 0 0 0 0 0 0 0 0 0 0 0 0 0 0 0 0 0 0 0 0 0 0 0 0 0 0 0 0 0 0
0 0 0 0 0 0 0 0 0 0 0 0 0 0 0 0 0 0 0 0 0 0 0 0 0 0 0 0 0 0 0 0 0 0 0 0 0 0 0 0 0 0 0

GEFSMA_con_cape1000_234.txt.gz
Probability
13 13 16 13 13 16 19 23 19 16 16 16 16 16 16 16 16 19 19 26 39 52 42 45 45 42 48 45 45 48 48 48 52 52 52 61 58 52 55 68 61 58 52
13 10 10 10 10 6 10 10 13 13 13 16 16 16 16 16 16 13 13 16 29 39 48 42 48 42 42 45 45 45 48 52 45 55 42 42 48 42 32 45 42 48 39
13 13 10 10 6 6 6 10 10 13 13 13 13 16 16 13 13 13 13 16 13 26 32 35 45 39 32 39 45 39 39 45 45 42 42 39 39 23 26 23 29 35 29
13 10 10 10 10 10 6 6 10 10 6 6 6 10 10 13 10 10 10 6 3 3 13 23 35 32 39 35 32 35 35 39 35 39 39 32 26 23 23 19 19 26 23
10 10 10 10 10 6 3 3 6 3 3 3 3 3 3 6 6 6 3 6 3 3 3 6 16 29 29 29 29 29 29 35 39 39 32 26 26 26 23 19 19 16 16
10 6 6 6 3 3 3 3 3 3 3 3 3 3 3 6 6 6 3 0 0 0 3 3 6 23 26 32 26 26 26 26 29 26 29 32 29 26 26 23 19 19 10
10 10 6 6 3 3 3 3 3 3 3 3 3 3 3 0 0 0 0 0 0 0 0 3 6 6 13 19 23 19 23 23 19 26 26 26 35 29 26 23 23 16 13
10 10 10 6 3 3 3 3 3 3 3 3 3 3 0 0 0 0 0 0 0 0 0 3 6 6 10 10 10 16 19 23 26 23 29 29 29 26 26 29 23 13 13
10 10 6 6 3 3 3 3 3 3 3 3 0 0 0 0 0 0 0 0 0 0 0 3 3 6 6 6 3 3 10 13 26 23 29 32 23 23 26 23 19 13 13
3 3 6 6 6 6 6 6 3 3 3 3 0 0 0 0 0 0 0 0 0 0 0 0 0 3 3 3 3 3 3 6 10 13 16 19 23 16 16 23 16 13 13
0 0 3 3 3 3 6 6 6 3 3 3 0 0 0 0 0 0 0 0 0 0 0 0 0 0 0 0 3 3 0 0 0 10 10 13 6 6 6 10 13 13 13
0 0 0 3 0 0 0 3 3 3 3 3 0 0 0 0 0 0 0 0 0 0 0 0 0 0 0 0 0 0 0 0 0 0 10 10 13 6 6 10 10 13 13
0 0 0 3 0 0 0 0 0 0 3 3 0 0 0 0 0 0 0 0 0 0 0 0 0 0 0 0 0 0 0 0 3 0 3 3 6 6 6 3 10 10 10
0 0 0 3 3 0 0 0 0 0 0 0 0 0 0 0 0 0 0 0 0 0 0 0 0 0 0 0 0 0 0 0 0 0 0 0 0 0 3 3 6 3 3
0 0 0 3 3 0 0 0 0 0 0 0 0 0 0 0 0 0 0 0 0 0 0 0 0 0 0 0 0 0 0 0 0 0 0 0 0 0 0 0 0 0 0
0 0 3 0 0 0 0 0 0 0 0 0 0 0 0 0 0 0 0 0 0 0 0 0 0 0 0 0 0 0 0 0 0 0 0 0 0 0 0 0 0 0 0
0 0 0 0 0 0 0 0 0 0 0 0 0 0 0 0 0 0 0 0 0 0 0 0 0 0 0 0 0 0 0 0 0 0 0 0 0 0 0 0 0 0 0
0 0 0 0 0 0 0 0 0 0 0 0 0 0 0 0 0 0 0 0 0 0 0 0 0 0 0 0 0 0 0 0 0 0 0 0 0 0 0 0 0 0 0
0 0 0 0 0 0 0 0 0 0 0 0 0 0 0 0 0 0 0 0 0 0 0 0 0 0 0 0 0 0 0 0 0 0 0 0 0 0 0 0 0 0 0
0 0 0 0 0 0 0 0 0 0 0 0 0 0 0 0 0 0 0 0 0 0 0 0 0 0 0 0 0 0 0 0 0 0 0 0 0 0 0 0 0 0 0
0 0 0 0 0 0 0 0 0 0 0 0 0 0 0 0 0 0 0 0 0 0 0 0 0 0 0 0 0 0 0 0 0 0 0 0 0 0 0 0 0 0 0
0 0 0 0 0 0 0 0 0 0 0 0 0 0 0 0 0 0 0 0 0 0 0 0 0 0 0 0 0 0 0 0 0 0 0 0 0 0 0 0 0 0 0
0 0 0 0 0 0 0 0 0 0 0 0 0 0 0 0 0 0 0 0 0 0 0 0 0 0 0 0 0 0 0 0 0 0 0 0 0 0 0 0 0 0 0
0 0 0 0 0 0 0 0 0 0 0 0 0 0 0 0 0 0 0 0 0 0 0 0 0 0 0 0 0 0 0 0 0 0 0 0 0 0 0 0 0 0 0
0 0 0 0 0 0 0 0 0 0 0 0 0 0 0 0 0 0 0 0 0 0 0 0 0 0 0 0 0 0 0 0 0 0 0 0 0 0 0 0 0 0 0
0 0 0 0 0 0 0 0 0 0 0 0 0 0 0 0 0 0 0 0 0 0 0 0 0 0 0 0 0 0 0 0 0 0 0 0 0 0 0 0 0 0 0

GEFSMA_con_cape1000_240.txt.gz
Probability
42 39 32 42 35 29 32 39 26 26 29 26 26 19 23 19 16 16 23 32 32 32 45 42 39 45 45 52 58 58 58 55 52 61 55 55 52 61 58 58 58 61 61
35 39 39 45 39 32 32 35 29 26 26 23 19 19 19 16 23 23 19 16 29 35 39 39 39 42 45 42 48 48 58 55 45 52 52 48 48 55 58 52 52 58 55
42 42 32 39 42 35 35 32 23 23 23 13 13 10 16 19 16 16 19 16 16 19 32 35 39 35 42 39 42 42 48 52 48 39 42 48 45 42 48 48 52 42 45
42 45 39 29 35 29 26 29 23 19 16 16 16 13 10 19 13 13 13 19 16 10 16 29 35 32 35 32 35 32 35 42 39 45 32 42 39 42 42 39 39 39 35
29 35 32 32 35 32 26 23 19 19 19 23 10 13 10 13 6 10 10 10 16 19 16 29 29 35 32 35 32 35 32 39 39 39 39 39 35 39 35 32 19 23 16
32 32 32 35 29 26 29 23 23 23 13 16 6 10 10 16 13 10 13 13 16 16 13 16 19 23 29 32 35 35 35 32 32 39 35 35 39 35 29 29 23 19 19
23 26 23 26 26 19 23 16 16 10 10 10 10 13 13 13 16 16 13 13 13 16 19 16 16 19 19 29 35 35 32 32 32 29 26 35 35 29 23 16 16 16 13
23 23 23 23 23 26 19 19 16 10 6 10 10 16 6 10 19 6 13 13 10 13 13 13 16 19 16 16 13 29 35 32 26 29 29 32 32 26 26 16 19 19 16
19 19 16 16 19 10 13 16 19 13 6 6 16 13 6 6 6 6 16 10 13 16 13 16 13 19 19 19 16 19 26 29 32 29 29 29 29 23 19 23 23 23 16
16 16 16 13 16 10 13 10 6 13 16 13 13 13 13 13 10 6 13 16 19 19 13 10 10 10 13 16 16 6 3 10 23 29 26 29 26 23 23 26 23 19 19
16 13 13 13 13 13 10 10 10 10 10 10 13 10 10 13 10 10 10 13 13 13 16 16 16 16 10 13 19 3 3 0 0 13 19 16 13 10 10 16 19 16 13
10 10 10 13 13 13 13 13 13 10 10 10 10 10 10 13 10 16 13 6 16 13 10 19 16 16 13 10 10 0 0 0 0 0 0 3 3 6 10 10 10 13 16
10 13 10 13 13 16 16 16 13 10 10 13 13 13 13 13 16 13 13 6 10 16 13 19 10 10 3 13 16 0 0 0 0 0 0 0 0 3 10 6 6 6 3
10 10 6 10 13 13 10 6 6 6 10 10 6 10 10 6 6 3 3 6 10 10 13 3 10 10 10 10 10 0 0 0 0 0 0 0 0 0 3 6 3 0 0
10 10 6 10 13 13 10 13 10 6 6 6 3 3 3 3 3 3 6 10 3 3 3 10 10 13 16 19 3 0 0 0 0 0 0 0 0 0 3 3 3 0 0
10 10 6 10 10 6 6 3 3 3 3 3 3 3 3 3 3 3 3 6 6 3 0 0 10 16 10 6 3 6 3 0 0 0 0 0 0 0 0 3 0 0 0
6 6 3 6 3 3 0 3 3 3 3 3 3 3 3 3 3 3 3 3 3 0 0 0 6 6 13 6 3 10 6 3 3 0 0 0 0 0 0 0 0 0 0
6 3 6 3 0 0 0 0 0 0 3 3 3 3 3 3 3 3 3 3 3 3 0 0 6 6 3 6 6 10 0 0 0 0 0 0 0 0 0 0 0 0 0
3 3 0 0 0 0 0 0 0 0 0 0 0 3 3 3 3 3 3 3 3 3 3 0 0 10 3 3 10 10 0 0 0 0 0 0 0 0 0 0 0 0 0
3 3 0 0 0 0 0 0 0 0 0 0 0 0 0 0 3 3 3 3 6 6 3 3 0 3 3 6 6 0 0 3 0 0 0 0 0 0 0 0 0 0 0
0 0 0 0 0 0 0 0 0 0 0 0 0 0 0 0 0 0 0 3 6 6 6 3 3 6 3 6 3 3 0 0 0 0 0 0 0 0 0 0 0 0 0
0 0 0 0 0 0 0 0 0 0 0 0 0 0 0 3 0 0 0 0 0 0 6 6 3 3 3 0 6 0 0 0 0 0 0 0 0 0 0 0 0 0 0
0 0 0 0 0 0 0 0 0 0 0 0 0 0 0 0 0 0 0 0 0 0 0 3 6 3 3 3 3 0 3 0 0 3 0 0 3 0 0 0 0 0 0
0 0 0 0 0 0 0 0 0 0 0 0 0 0 0 0 0 0 0 0 0 0 0 0 3 3 0 3 3 3 3 3 3 3 0 0 0 3 0 0 0 0 0
0 0 0 0 0 0 0 0 0 0 0 0 0 0 0 0 0 0 0 0 0 3 0 0 0 0 0 0 0 0 0 0 0 0 0 0 0 3 0 0 0 0 0
0 0 0 0 0 0 0 0 0 0 0 0 0 0 0 0 0 0 0 0 0 3 0 0 0 0 0 0 0 3 0 0 0 0 0 0 0 0 0 0 0 0 0

GEFSMA_con_cape1000_246.txt.gz
Probability
58 58 55 52 52 52 52 42 35 26 26 26 19 19 19 23 19 23 29 48 52 39 35 39 45 52 55 58 55 58 65 58 61 65 68 68 65 61 65 61 65 58 45
55 58 52 48 48 48 39 35 32 32 29 29 23 19 19 13 16 23 16 32 32 39 39 35 42 48 52 52 48 52 52 45 45 58 58 55 55 61 58 58 58 52 55
55 48 45 52 52 42 42 42 42 39 32 23 23 16 26 19 16 19 16 13 13 29 42 42 48 45 45 45 48 48 42 39 42 48 52 52 55 48 42 52 55 48 42
48 42 39 45 42 45 42 42 39 29 29 26 19 13 16 13 13 13 10 13 16 10 29 35 45 42 42 45 42 39 39 39 42 42 39 58 58 42 35 42 42 35 39
39 45 42 45 45 45 39 32 32 32 26 29 19 19 13 10 19 6 10 13 13 13 13 26 39 45 42 39 39 39 39 29 35 39 42 39 45 42 32 39 42 39 32
42 39 35 45 39 39 35 29 29 29 26 26 10 10 10 13 13 19 16 13 10 10 10 10 19 26 45 39 42 35 35 35 35 35 42 39 35 32 32 32 29 35 29
39 32 29 35 29 32 29 26 29 26 26 23 23 23 16 10 10 16 16 13 13 10 10 16 10 10 6 32 39 42 35 35 42 39 42 35 35 35 32 29 32 32 32
39 19 26 23 26 26 26 29 29 19 19 19 23 19 13 13 16 3 6 13 13 16 19 10 10 13 13 13 19 32 39 35 39 42 42 39 39 32 32 29 32 29 26
19 26 23 19 19 19 23 23 26 16 13 16 23 16 10 6 6 6 3 3 3 10 10 10 10 10 13 13 13 26 39 39 39 39 35 35 35 32 32 29 32 32 29
19 16 13 16 19 19 16 19 13 13 13 13 13 19 19 13 6 6 10 6 6 6 6 3 3 6 10 13 19 10 26 26 29 39 35 35 32 32 39 32 32 32 26
26 13 16 29 19 19 16 10 13 13 16 16 16 13 6 6 6 6 3 3 3 6 6 6 6 6 6 6 13 10 13 6 6 10 29 35 32 29 29 29 29 26 26
26 19 23 32 26 23 19 19 19 16 13 16 10 10 10 3 3 3 3 3 3 3 6 6 6 10 6 10 10 6 0 0 0 0 6 16 26 23 26 26 26 23 23
23 29 16 26 26 26 19 23 26 23 16 16 10 6 6 6 6 6 3 3 3 3 3 6 6 6 6 10 10 6 3 0 0 0 0 0 6 13 16 23 26 19 23
26 19 26 23 19 16 16 23 19 13 13 13 6 6 6 3 3 3 3 3 0 0 3 3 3 6 0 10 10 3 3 0 0 0 0 0 0 0 0 3 3 6 10
19 16 16 13 13 13 13 13 16 16 10 6 3 3 6 3 3 3 3 3 0 0 0 3 3 3 3 6 3 6 6 3 0 0 0 0 0 0 0 0 0 0 0
16 10 10 6 10 10 10 16 19 13 6 3 3 3 3 3 3 3 3 3 3 0 0 0 0 0 0 0 0 3 6 3 0 0 0 0 0 0 0 0 0 0 0
10 6 13 6 6 6 6 6 10 6 3 3 3 3 3 3 3 6 3 3 3 0 0 3 3 0 3 0 0 3 0 0 0 0 0 0 0 0 0 0 0 0 0
10 6 6 3 6 6 6 3 0 0 0 0 0 3 3 0 3 3 3 3 3 3 0 0 3 0 3 3 3 3 0 0 0 0 0 0 0 0 0 0 0 0 0
10 10 6 3 6 6 3 0 0 0 0 0 0 0 0 0 0 0 3 3 3 0 0 0 0 0 3 0 0 3 0 0 0 0 0 0 0 0 0 0 0 0 0
10 10 3 3 3 3 0 0 0 0 0 0 0 0 0 0 0 0 0 0 0 0 0 0 0 0 0 0 0 0 0 0 0 0 0 0 0 0 0 0 0 0 0
3 10 3 3 3 3 0 0 0 0 0 0 0 0 0 0 0 0 0 0 0 0 0 0 0 0 0 0 0 0 0 0 0 0 0 0 0 0 0 0 0 0 0
6 3 6 6 3 0 0 0 0 0 0 0 0 0 0 0 0 0 0 0 0 0 0 0 0 0 0 0 0 0 0 0 0 0 0 0 0 0 0 0 0 0 0
6 6 6 3 0 0 0 0 0 0 0 0 0 0 0 0 0 0 0 0 0 0 0 0 0 0 0 0 0 0 0 0 0 0 0 0 0 0 0 0 0 0 0
13 13 6 0 0 0 0 0 0 0 0 0 0 0 0 0 0 0 0 0 0 0 0 0 0 0 0 0 0 0 0 0 0 0 0 0 0 0 0 0 0 0 0
16 13 3 6 0 0 0 0 0 0 0 0 0 0 0 0 0 0 0 0 0 0 0 0 0 0 0 0 0 0 0 0 0 0 0 0 0 0 0 0 0 0 0
16 10 6 3 3 0 0 0 0 0 0 0 0 0 0 0 0 0 0 0 0 0 0 0 0 0 0 0 0 0 0 0 0 0 0 0 0 0 0 0 0 0 0

GEFSMA_con_cape1000_252.txt.gz
Probability
16 19 13 10 13 16 19 6 10 6 10 10 10 10 10 10 6 6 13 29 45 45 42 45 48 52 52 55 58 61 65 68 58 55 55 55 65 65 65 61 61 71 68
10 13 6 3 6 6 6 6 13 10 10 10 10 10 6 6 3 3 6 19 29 39 42 39 42 45 48 58 61 55 45 52 58 52 55 55 65 68 68 65 61 65 61
6 10 10 10 10 10 10 10 10 10 10 6 6 6 6 6 3 3 6 3 10 23 42 35 39 35 45 45 48 55 48 45 42 48 52 55 55 61 58 58 61 58 55
6 10 13 13 16 13 10 10 10 10 6 6 6 3 6 3 3 3 3 3 3 10 19 29 26 29 29 35 45 42 45 45 39 48 48 45 48 45 39 39 45 48 42
10 10 10 19 16 13 6 6 6 6 6 3 3 3 3 0 0 0 3 3 3 3 6 16 26 29 29 29 32 32 35 42 42 45 42 35 42 39 35 39 39 42 39
13 10 16 19 16 6 6 6 6 6 6 6 6 3 3 0 0 0 0 0 0 0 3 3 13 16 26 26 26 32 32 32 32 35 32 39 39 35 32 35 35 39 39
10 6 13 10 10 10 6 6 6 6 3 3 3 3 0 0 0 0 0 0 0 0 0 0 3 3 3 19 23 26 35 29 35 32 29 35 35 32 32 32 29 35 32
6 10 3 6 3 3 3 3 3 3 3 3 3 0 0 0 0 0 0 0 0 0 0 0 0 0 3 3 3 19 26 35 29 35 39 32 32 32 32 32 29 29 32
6 6 6 6 3 3 3 3 3 3 3 0 0 0 0 0 0 0 0 0 0 0 0 0 0 0 0 3 3 6 19 19 29 29 32 35 29 32 32 32 35 29 32
6 10 6 6 6 3 3 6 3 3 3 3 0 0 0 0 0 0 0 0 0 0 0 0 0 0 0 0 0 0 6 10 16 29 29 32 35 32 35 32 39 35 29
10 3 6 10 10 10 6 6 6 3 0 0 0 0 0 0 0 0 0 0 0 0 0 0 0 0 0 0 0 0 3 0 6 16 16 26 29 32 26 35 32 35 32
6 6 6 6 6 10 6 6 6 3 0 0 0 0 0 0 0 0 0 0 0 0 0 0 0 0 0 0 0 0 0 0 0 0 3 6 16 23 26 23 26 29 29
6 6 6 6 6 6 6 3 3 3 0 0 0 0 0 0 0 0 0 0 0 0 0 0 0 0 0 0 0 0 0 0 0 0 0 0 3 3 10 16 19 23 26
6 6 6 6 6 6 6 0 0 0 0 0 0 0 0 0 0 0 0 0 0 0 0 0 0 0 0 0 0 0 0 0 0 0 0 0 0 3 6 6 3 10 6
3 6 6 6 6 6 6 0 0 0 0 0 0 0 0 0 0 0 0 0 0 0 0 0 0 0 0 0 0 0 0 0 0 0 0 0 0 0 0 0 0 0 0
3 3 3 3 3 3 3 0 0 0 0 0 0 0 0 0 0 0 0 0 0 0 0 0 0 0 0 0 0 0 0 0 0 0 0 0 0 0 0 0 0 0 0
3 3 3 3 3 3 3 0 0 0 0 0 0 0 0 0 0 0 0 0 0 0 0 0 0 0 0 0 0 0 0 0 0 0 0 0 0 0 0 0 0 0 0
3 3 3 3 3 3 0 0 0 0 0 0 0 0 0 0 0 0 0 0 0 0 0 0 0 0 0 0 0 0 0 0 0 0 0 0 0 0 0 0 0 0 0
3 3 3 3 3 3 0 0 0 0 0 0 0 0 0 0 0 0 0 0 0 0 0 0 0 0 0 0 0 0 0 0 0 0 0 0 0 0 0 0 0 0 0
0 3 3 3 3 3 3 0 0 0 0 0 0 0 0 0 0 0 0 0 0 0 0 0 0 0 0 0 0 0 0 0 0 0 0 0 0 0 0 0 0 0 0
0 0 3 3 3 3 3 0 0 0 0 0 0 0 0 0 0 0 0 0 0 0 0 0 0 0 0 0 0 0 0 0 0 0 0 0 0 0 0 0 0 0 0
0 0 3 3 3 3 0 0 0 0 0 0 0 0 0 0 0 0 0 0 0 0 0 0 0 0 0 0 0 0 0 0 0 0 0 0 0 0 0 0 0 0 0
0 0 0 0 3 0 0 0 0 0 0 0 0 0 0 0 0 0 0 0 0 0 0 0 0 0 0 0 0 0 0 0 0 0 0 0 0 0 0 0 0 0 0
0 0 0 0 0 0 0 0 0 0 0 0 0 0 0 0 0 0 0 0 0 0 0 0 0 0 0 0 0 0 0 0 0 0 0 0 0 0 0 0 0 0 0
0 0 0 0 0 0 0 0 0 0 0 0 0 0 0 0 0 0 0 0 0 0 0 0 0 0 0 0 0 0 0 0 0 0 0 0 0 0 0 0 0 0 0
0 0 0 0 0 0 0 0 0 0 0 0 0 0 0 0 0 0 0 0 0 0 0 0 0 0 0 0 0 0 0 0 0 0 0 0 0 0 0 0 0 0 0

GEFSMA_con_cape1000_258.txt.gz
Probability
13 6 6 13 23 26 29 26 26 19 13 13 13 13 10 10 10 10 10 23 39 32 32 42 45 55 55 55 55 58 55 45 52 55 55 58 61 65 65 65 61 61 61
10 6 6 6 13 13 13 16 16 16 13 13 13 6 6 6 6 6 6 19 32 35 29 32 39 42 42 52 52 58 58 52 45 52 52 42 48 52 61 61 58 58 55
3 3 6 6 6 6 10 13 13 10 13 10 6 6 6 6 6 6 3 6 23 29 26 26 29 29 35 35 45 52 48 52 48 48 48 42 39 42 45 55 55 58 55
3 3 3 3 3 6 6 13 13 13 10 6 6 6 6 6 6 6 3 6 6 13 16 23 23 26 26 26 35 32 42 45 48 48 48 42 45 48 39 39 45 48 42
3 3 3 0 0 3 6 6 6 6 6 6 6 3 3 3 3 3 0 3 3 3 10 13 19 23 26 26 26 26 29 39 45 45 48 45 55 48 35 32 26 35 32
6 3 3 0 3 3 6 6 6 6 3 3 3 3 3 3 3 3 3 3 0 0 0 6 6 10 16 19 23 23 26 32 35 39 39 45 48 35 29 23 23 19 29
0 0 0 0 0 0 0 0 3 3 3 3 3 3 3 3 3 3 3 3 0 0 0 3 6 6 10 16 16 23 26 26 29 42 48 39 35 32 29 23 19 16 19
0 0 0 0 0 0 0 0 3 3 3 3 3 3 3 3 3 3 3 3 3 3 3 0 0 3 0 10 13 13 23 23 26 26 32 35 35 35 26 29 26 23 19
3 0 0 0 0 0 0 0 0 3 3 3 0 0 0 0 0 0 3 3 3 3 3 3 3 0 0 0 3 3 10 16 16 19 29 35 32 32 29 29 26 26 26
3 0 3 0 0 0 0 0 0 0 0 0 0 0 0 0 0 0 0 0 0 0 0 0 0 0 0 0 0 0 3 3 6 16 19 29 32 32 26 29 26 26 26
0 3 3 0 0 0 0 0 0 0 0 0 0 0 0 0 0 0 0 0 0 0 0 0 0 0 0 0 0 0 0 0 0 3 16 16 23 26 29 29 23 26 26
0 3 3 0 0 0 0 0 0 0 0 0 0 0 0 0 0 0 0 0 0 0 0 0 0 0 0 0 0 0 0 0 0 0 0 3 16 23 26 19 23 26 19
3 6 6 3 0 0 0 0 0 0 0 0 0 0 0 0 0 0 0 0 0 0 0 0 0 0 0 0 0 0 0 0 0 0 0 3 3 3 6 10 16 10 16
6 6 6 6 6 0 0 0 0 0 0 0 0 0 0 0 0 0 0 0 0 0 0 0 0 0 0 0 0 0 0 0 0 0 0 0 0 0 0 0 3 3 3
3 3 3 3 3 3 0 0 0 0 0 0 0 0 0 0 0 0 0 0 0 0 0 0 0 0 0 0 0 0 0 0 0 0 0 0 0 0 0 0 0 0 0
3 3 3 3 3 3 3 0 0 0 0 0 0 0 0 0 0 0 0 0 0 0 0 0 0 0 0 0 0 0 0 0 0 0 0 0 0 0 0 0 0 0 0
3 3 3 3 3 3 3 3 0 0 0 0 0 0 0 0 0 0 0 0 0 0 0 0 0 0 0 0 0 0 0 0 0 0 0 0 0 0 0 0 0 0 0
3 3 3 3 3 3 3 3 3 0 0 0 0 0 0 0 0 0 0 0 0 0 0 0 0 0 0 0 0 0 0 0 0 0 0 0 0 0 0 0 0 0 0
3 3 3 3 3 3 3 3 3 3 0 0 0 0 0 0 0 0 0 0 0 0 0 0 0 0 0 0 0 0 0 0 0 0 0 0 0 0 0 0 0 0 0
3 3 3 3 3 3 3 3 3 3 0 0 0 0 0 0 0 0 0 0 0 0 0 0 0 0 0 0 0 0 0 0 0 0 0 0 0 0 0 0 0 0 0
3 3 3 3 3 3 3 3 3 3 0 0 0 0 0 0 0 0 0 0 0 0 0 0 0 0 0 0 0 0 0 0 0 0 0 0 0 0 0 0 0 0 0
0 0 0 0 3 3 3 3 3 3 0 0 0 0 0 0 0 0 0 0 0 0 0 0 0 0 0 0 0 0 0 0 0 0 0 0 0 0 0 0 0 0 0
0 0 0 0 0 3 0 0 0 0 0 0 0 0 0 0 0 0 0 0 0 0 0 0 0 0 0 0 0 0 0 0 0 0 0 0 0 0 0 0 0 0 0
0 0 0 0 0 0 0 0 0 0 0 0 0 0 0 0 0 0 0 0 0 0 0 0 0 0 0 0 0 0 0 0 0 0 0 0 0 0 0 0 0 0 0
0 0 0 0 0 0 0 0 0 0 0 0 0 0 0 0 0 0 0 0 0 0 0 0 0 0 0 0 0 0 0 0 0 0 0 0 0 0 0 0 0 0 0
0 0 0 0 0 0 0 0 0 0 0 0 0 0 0 0 0 0 0 0 0 0 0 0 0 0 0 0 0 0 0 0 0 0 0 0 0 0 0 0 0 0 0

GEFSMA_con_cape1000_264.txt.gz
Probability
48 45 48 48 39 42 45 39 26 35 35 32 32 29 29 23 32 26 29 29 42 48 48 39 35 39 42 45 52 48 48 52 48 55 55 55 52 52 52 52 52 65 61
45 45 42 45 42 42 42 35 32 45 45 35 29 32 32 26 35 32 23 32 45 42 42 39 32 35 35 39 48 52 55 52 52 45 42 52 52 45 35 39 42 42 48
35 39 42 42 45 39 45 42 39 42 42 32 29 35 32 29 23 26 23 29 29 26 35 35 29 35 32 35 35 39 45 48 42 35 35 35 42 45 32 29 32 35 42
35 42 45 39 42 35 32 45 35 39 29 32 32 39 35 32 19 19 16 23 19 19 29 29 26 26 32 32 35 35 39 39 42 39 32 39 35 35 35 32 35 35 35
39 39 42 45 42 35 29 29 35 39 35 32 26 35 32 23 16 13 13 19 19 26 23 23 23 19 23 26 29 26 29 42 35 42 39 35 35 39 23 29 26 23 26
39 42 35 39 42 42 42 35 32 35 23 26 10 13 19 19 13 10 6 6 13 13 10 13 6 16 19 19 23 23 23 26 39 42 39 42 35 35 23 19 23 19 19
32 35 29 42 39 39 42 32 32 29 23 13 13 16 16 10 13 16 6 10 6 6 10 10 10 10 10 16 16 19 19 23 26 29 35 42 39 35 32 29 26 19 19
29 26 32 26 32 42 35 35 35 23 16 10 16 13 13 10 13 3 10 13 6 6 10 10 13 10 3 13 10 13 19 23 26 26 26 39 42 32 32 32 26 19 19
26 29 23 23 23 23 29 29 32 19 16 10 10 6 13 13 13 6 6 3 6 6 6 10 10 6 6 10 16 16 16 16 29 26 26 29 35 32 35 32 26 23 19
16 16 23 19 19 23 26 26 23 23 23 13 6 6 10 10 6 3 10 6 6 13 13 3 3 10 13 10 13 6 10 10 13 19 23 29 29 26 29 32 29 26 23
16 23 23 23 23 23 23 19 23 23 23 19 13 10 6 10 6 3 0 3 3 3 6 6 10 10 10 13 16 10 10 3 6 6 13 16 13 13 16 23 29 23 23
16 19 23 19 23 19 16 16 19 16 23 19 19 10 10 10 13 6 0 6 6 6 6 10 10 3 3 3 3 0 0 0 0 0 3 10 13 13 10 13 19 16 16
19 16 13 16 16 16 13 13 23 16 13 13 13 10 10 3 6 6 6 3 0 0 3 6 6 3 3 10 6 0 0 0 0 0 0 0 3 10 13 10 13 19 19
6 10 16 16 13 6 6 13 13 10 10 10 3 6 6 10 6 6 3 6 3 3 3 3 3 3 3 3 0 0 0 0 0 0 0 0 0 0 3 6 6 6 10
6 10 10 10 10 6 6 10 16 10 10 10 6 10 13 13 10 10 10 10 3 3 3 0 3 0 0 0 0 0 3 0 0 0 0 0 0 0 0 0 3 3 3
10 10 10 10 10 6 10 10 10 6 6 6 10 10 6 10 10 10 3 3 6 6 3 3 3 0 0 0 0 0 3 0 0 0 0 0 0 0 0 0 0 0 0
13 10 10 13 10 10 10 10 6 6 6 6 3 3 3 6 10 6 6 3 0 3 0 3 0 0 0 0 0 0 3 3 3 0 0 0 0 0 0 0 0 0 0
13 13 13 10 10 6 10 6 6 6 6 6 3 3 3 3 3 3 3 3 0 3 0 0 0 0 0 3 0 0 0 0 0 0 0 0 0 0 0 0 0 0 0
13 13 13 10 10 10 6 10 10 13 10 6 3 6 3 3 6 3 3 3 0 0 0 0 0 0 0 0 0 0 0 3 0 0 0 0 0 0 0 0 0 0 0
13 13 13 10 6 10 10 10 10 10 13 10 10 6 6 6 6 3 3 3 3 3 0 0 0 0 0 0 0 0 0 0 0 0 0 0 0 0 0 0 0 0 0
10 10 6 10 10 10 10 6 6 6 10 10 10 3 6 6 3 3 3 3 3 3 0 0 0 0 0 0 0 0 0 0 0 0 0 0 0 0 0 0 0 0 0
6 6 10 13 10 6 3 3 6 6 6 3 3 6 6 3 3 0 0 0 0 3 0 0 0 0 0 0 0 0 0 0 0 0 0 0 0 0 3 3 0 0 0
10 6 10 10 10 10 3 3 3 3 3 6 6 6 6 3 3 3 0 0 0 0 0 3 0 0 0 0 0 0 0 0 0 0 0 0 0 0 0 0 0 0 0
10 13 10 10 10 10 3 0 0 3 3 3 6 6 6 6 3 3 3 3 0 0 0 0 0 0 0 0 0 3 3 3 3 6 3 0 0 0 0 0 0 0 0
19 13 13 13 10 10 0 0 0 3 3 3 3 6 6 6 3 0 3 3 3 0 0 0 0 0 0 0 0 0 0 0 0 3 0 3 3 0 0 3 0 0 0
16 10 13 13 13 13 3 0 0 3 3 3 3 6 0 3 3 0 3 3 3 3 0 0 0 0 0 0 0 0 0 0 0 3 0 0 0 0 0 6 3 0 0

GEFSMA_con_cape1000_270.txt.gz
Probability
45 45 55 55 45 45 45 58 45 35 42 29 29 29 29 29 26 23 29 52 55 48 45 45 42 39 45 42 42 45 42 45 45 48 45 48 48 52 55 55 55 52 55
52 55 55 48 48 45 42 45 35 32 32 32 23 26 23 19 19 19 19 39 45 45 45 42 45 42 42 42 42 42 42 45 45 48 42 48 42 45 45 52 48 48 42
52 55 58 52 42 42 39 39 42 35 32 26 23 26 23 19 13 13 10 13 19 39 42 42 42 42 42 39 35 35 39 45 42 45 42 45 45 42 39 42 39 42 39
48 55 55 55 45 42 39 32 42 39 32 29 29 23 23 23 26 19 16 13 16 10 29 32 32 42 42 42 35 35 39 39 32 35 42 35 39 35 29 32 29 29 29
42 52 55 52 45 42 39 35 35 42 42 32 32 26 26 23 16 13 23 19 16 19 13 29 35 29 39 35 29 32 35 35 35 35 39 39 35 42 35 32 26 19 19
39 48 45 45 42 39 35 39 39 42 42 32 19 19 16 16 19 23 13 16 16 19 10 10 26 29 29 29 29 26 29 26 35 35 35 35 35 35 35 26 19 19 19
39 45 39 45 48 48 35 35 35 32 32 23 23 16 10 13 13 19 16 19 19 19 16 16 13 10 13 26 26 23 29 26 29 26 26 32 32 29 29 29 19 13 16
32 26 35 32 39 35 35 39 29 29 23 23 26 10 3 6 13 6 6 16 19 16 10 13 13 13 10 3 6 13 23 23 26 26 26 32 35 26 26 32 26 19 16
32 32 29 32 35 32 32 32 26 23 23 19 26 19 13 13 10 6 10 6 13 16 16 6 6 13 13 6 3 10 16 19 19 19 19 23 29 26 26 29 29 26 26
26 26 26 29 32 32 39 29 29 23 19 19 10 13 16 16 3 3 6 6 6 10 10 10 6 13 13 16 13 6 6 10 16 19 19 19 19 19 23 26 23 26 23
19 19 23 26 23 26 26 29 26 23 19 10 13 13 16 13 10 6 3 3 6 6 10 13 16 13 19 13 13 6 6 6 10 16 16 19 23 23 23 23 16 23 19
26 16 19 23 26 26 26 26 26 16 23 19 19 16 16 19 16 6 3 3 3 3 10 13 10 13 16 16 13 3 3 0 0 3 10 13 19 23 23 26 16 13 16
23 26 13 19 26 23 19 23 19 19 19 16 26 23 13 6 10 6 3 3 3 0 6 3 0 6 0 0 0 0 0 0 0 0 3 3 6 13 13 19 13 16 16
13 16 19 19 19 19 16 19 16 16 13 19 13 16 16 10 13 10 3 0 0 0 0 6 0 3 3 0 3 0 0 0 0 0 0 0 3 6 6 6 13 13 13
19 19 16 16 16 16 16 19 13 16 19 13 13 13 16 10 13 13 3 3 0 0 0 0 6 3 6 6 0 0 0 0 0 0 0 0 0 0 3 3 0 3 3
19 19 16 16 16 16 19 19 16 16 19 23 19 16 13 6 10 6 3 6 6 3 0 0 3 10 3 0 0 3 0 0 0 0 0 0 0 0 0 0 0 0 0
13 13 16 16 16 19 23 23 16 16 16 19 13 6 10 6 10 10 10 10 6 3 3 3 0 0 0 0 0 0 0 3 0 0 0 0 0 0 0 0 0 0 0
16 16 16 19 16 19 19 13 16 10 13 10 6 6 10 10 10 10 10 6 6 6 6 3 3 0 3 0 0 0 0 0 0 0 0 0 0 0 0 0 0 0 0
16 16 16 13 16 16 19 16 13 10 10 10 10 10 10 10 10 10 6 6 6 6 6 3 3 0 3 0 0 0 0 0 0 0 0 0 0 0 0 0 0 0 0
19 19 19 19 19 16 10 16 13 10 10 10 13 6 6 6 6 6 6 6 6 6 6 6 0 0 0 0 0 0 0 0 0 0 0 0 0 0 0 0 0 0 0
16 19 16 19 16 13 10 10 13 10 10 10 6 6 6 6 6 6 6 6 6 6 3 3 3 0 0 0 0 0 0 0 0 0 0 0 0 0 0 0 0 0 0
23 19 19 13 16 6 3 3 6 6 10 10 6 6 6 3 3 3 3 3 3 6 6 3 3 3 0 0 0 0 0 0 0 0 0 0 0 3 3 3 0 0 0
23 19 19 16 13 6 3 3 3 3 6 10 6 6 6 6 3 3 3 0 0 0 0 3 3 3 3 3 0 0 0 0 0 0 0 0 0 0 0 0 0 0 0
23 19 19 13 13 6 3 3 0 3 6 6 6 6 6 3 3 6 6 3 3 3 3 0 3 3 3 3 3 0 0 0 0 0 0 0 0 0 0 0 0 0 0
26 16 23 19 16 6 6 0 0 3 3 10 6 6 6 6 6 3 6 6 6 3 3 0 0 0 0 0 0 0 0 0 0 0 0 0 0 0 0 0 0 0 0
26 19 19 19 19 19 10 0 0 3 3 3 10 6 3 3 3 3 3 6 6 6 3 3 0 0 0 0 0 0 0 0 0 0 0 0 0 0 0 0 0 0 0

GEFSMA_con_cape1000_276.txt.gz
Probability
6 6 3 3 10 10 13 13 13 13 13 10 6 10 3 10 6 10 10 42 48 45 48 48 42 39 42 39 45 42 39 35 35 42 45 45 48 52 55 55 58 61 55
10 3 0 3 3 6 6 6 10 13 13 6 6 3 3 6 3 6 3 19 42 52 52 45 42 35 35 39 39 42 35 39 39 39 42 42 42 42 52 52 52 45 48
10 3 0 6 6 3 0 6 6 6 6 6 6 3 3 0 0 0 3 10 6 29 42 42 42 35 35 39 39 39 35 35 35 39 39 35 35 39 42 42 45 45 35
6 3 0 3 3 0 0 3 3 6 3 0 0 3 0 0 0 0 0 3 6 10 23 39 42 42 39 35 35 39 39 42 42 39 35 42 35 35 35 35 35 32 32
13 0 0 3 0 0 0 3 3 0 0 0 0 0 0 0 0 0 0 0 0 0 3 13 39 39 45 35 39 39 39 39 42 39 39 35 39 35 29 29 29 23 26
10 6 10 3 0 0 0 0 0 0 0 0 0 0 0 0 0 0 0 0 0 0 0 0 3 13 32 39 39 35 32 29 32 32 29 29 32 29 29 23 19 16 16
10 10 10 6 3 3 0 0 0 0 0 0 0 0 0 0 0 0 0 0 0 0 0 0 0 0 0 23 29 29 26 26 26 29 32 29 26 26 23 26 19 16 13
10 13 10 10 6 6 3 0 0 0 0 0 0 0 0 0 0 0 0 0 0 0 0 0 0 0 0 0 6 16 19 23 32 26 32 29 26 23 19 19 16 10 13
10 10 6 10 6 6 6 3 3 3 3 3 0 0 0 0 0 0 0 0 0 0 0 0 0 0 0 0 0 6 13 19 16 16 19 19 23 23 19 16 16 13 10
10 10 6 6 6 6 6 6 3 3 3 3 3 0 0 0 0 0 0 0 0 0 0 0 0 0 0 0 0 0 6 10 16 19 19 19 19 23 23 16 23 23 13
6 10 6 6 6 6 6 6 6 3 3 3 3 0 0 0 0 0 0 0 0 0 0 0 0 0 0 0 0 0 0 3 3 10 13 16 16 16 19 23 16 19 19
6 6 6 6 6 6 6 6 6 3 3 3 3 3 0 0 0 0 0 0 0 0 0 0 0 0 0 0 0 0 0 0 0 0 3 10 13 13 16 16 13 19 19
6 6 6 6 6 6 6 6 6 6 3 6 3 0 0 0 0 0 0 0 0 0 0 0 0 0 0 0 0 0 0 0 0 0 0 0 6 10 6 10 13 10 16
6 6 6 6 6 6 6 6 6 6 6 6 6 3 3 0 0 0 0 0 0 0 0 0 0 0 0 0 0 0 0 0 0 0 0 0 0 0 3 3 10 6 6
6 6 6 6 6 6 6 6 6 6 6 6 6 3 3 0 0 0 0 0 0 0 0 0 0 0 0 0 0 0 0 0 0 0 0 0 0 0 0 0 0 3 3
6 6 6 6 6 6 6 6 6 6 6 6 6 3 3 3 3 0 0 0 0 0 0 0 0 0 0 0 0 0 0 0 0 0 0 0 0 0 0 0 0 0 0
6 6 6 6 6 6 6 6 6 6 6 6 6 3 3 3 3 3 0 0 0 0 0 0 0 0 0 0 0 0 0 0 0 0 0 0 0 0 0 0 0 0 0
6 6 6 6 3 3 6 6 6 6 6 6 6 3 3 3 3 3 3 3 0 0 0 0 0 0 0 0 0 0 0 0 0 0 0 0 0 0 0 0 0 0 0
6 3 3 3 3 3 3 3 3 6 6 6 6 6 3 3 3 3 3 3 3 3 0 0 0 0 0 0 0 0 0 0 0 0 0 0 0 0 0 0 0 0 0
3 3 3 3 3 3 3 3 3 3 6 6 6 6 3 3 3 3 3 3 3 3 3 0 0 0 0 0 0 0 0 0 0 0 0 0 0 0 0 0 0 0 0
6 3 3 3 3 3 3 3 3 3 3 6 6 6 6 6 3 3 3 3 3 3 3 3 0 0 0 0 0 0 0 0 0 0 0 0 0 0 0 0 0 0 0
3 3 3 3 3 3 3 3 3 3 3 3 3 3 3 3 3 3 3 3 3 3 3 3 3 3 0 0 0 0 0 0 0 0 0 0 0 0 0 0 0 0 0
3 3 3 3 3 3 3 3 0 3 3 3 3 3 3 3 3 3 3 0 0 3 3 3 3 3 3 0 0 0 0 0 0 0 0 0 0 0 0 0 0 0 0
3 3 3 3 3 3 3 3 0 0 3 3 3 3 3 3 3 3 3 3 3 3 3 3 3 3 3 3 0 0 0 0 0 0 0 0 0 0 0 0 0 0 0
3 3 6 6 3 3 3 0 0 3 3 3 3 3 3 3 3 3 3 3 3 3 3 0 0 3 0 0 0 0 0 0 0 0 0 0 0 0 0 0 0 0 0
3 3 3 6 3 3 3 3 0 3 3 3 3 3 3 3 3 0 3 3 3 3 3 3 0 0 0 0 0 0 0 0 0 0 0 0 0 0 0 0 0 0 0